GFSSGP_sfc_dewp_057.txt.gz
Dewpoint
56 45 44 43 25 25 22 21 18 14 11 16 30 29 34 40 43 43 53 62 62 68 72 73 74 74 74 75 76 76 76 76 76 76 76 74 73 72 70 69 67 65 63 62 62 62 62 61 61
50 42 37 36 22 20 21 22 18 17 15 24 30 31 32 45 47 44 60 62 63 68 71 71 74 74 74 74 75 76 76 76 76 76 75 74 73 71 69 68 66 64 63 63 62 62 62 62 61
54 47 34 30 23 20 20 20 19 17 18 32 32 33 38 46 47 45 60 61 64 67 68 71 74 74 73 73 75 75 76 76 76 76 74 74 72 72 71 69 67 64 63 63 63 63 63 63 63
44 43 38 23 19 19 21 20 20 18 24 34 33 34 41 49 48 52 65 62 63 64 68 73 74 74 74 73 73 74 75 75 75 75 74 73 72 72 71 69 69 67 65 64 64 64 65 65 65
48 41 29 21 18 17 18 19 17 15 15 32 32 35 43 50 51 63 65 63 63 62 69 73 74 74 74 73 72 72 73 74 74 74 74 73 72 72 71 70 68 67 67 66 65 66 68 68 68
41 35 27 23 21 21 19 18 16 16 15 26 31 33 38 49 48 53 62 62 62 61 70 72 74 74 73 73 72 72 72 72 73 73 73 73 72 71 71 70 69 69 69 69 68 69 69 69 69
42 36 30 25 24 23 20 18 16 16 16 18 25 35 41 46 48 50 56 59 62 65 69 69 72 73 74 73 72 72 72 71 71 72 72 72 71 71 71 70 70 70 69 69 69 69 70 70 70
31 41 38 36 33 26 25 25 19 17 17 19 22 32 39 48 48 50 53 53 61 68 69 69 69 71 72 72 73 72 72 72 71 71 71 71 71 71 71 70 70 70 70 70 70 70 70 70 70
34 32 35 36 34 32 29 26 26 22 19 18 22 44 46 48 47 45 47 50 63 67 69 69 69 69 70 70 71 72 72 72 72 71 71 71 69 69 68 69 69 70 70 70 70 70 70 71 71
31 28 29 35 35 33 31 28 28 24 23 22 20 40 45 48 49 41 43 47 56 66 68 68 68 67 66 66 69 70 69 70 70 69 69 69 67 66 67 68 70 69 70 70 71 71 71 70 69
26 29 29 29 31 33 33 33 32 31 24 23 24 27 42 44 45 49 43 47 50 63 66 67 67 66 64 62 67 69 69 69 69 68 67 68 67 65 66 65 66 65 68 66 69 69 69 68 68
18 21 29 29 30 31 32 33 33 33 33 28 29 29 30 35 45 46 51 45 46 54 62 67 66 64 62 60 66 67 66 66 67 67 67 67 66 64 62 63 62 63 65 66 65 67 67 67 66
17 18 18 22 26 29 31 30 30 32 33 35 32 31 33 33 42 45 47 50 51 51 58 61 66 64 62 62 66 66 66 65 65 65 66 65 65 63 62 61 62 62 63 65 63 63 64 65 65
13 15 18 18 17 21 24 25 27 30 32 32 34 36 36 36 40 42 50 54 52 50 51 59 62 68 66 64 65 66 66 66 66 65 66 65 64 64 62 61 62 63 61 63 63 61 63 63 64
16 14 14 17 19 18 18 19 21 24 31 33 33 33 35 38 37 40 41 50 50 54 55 57 59 56 69 65 67 69 69 67 67 66 67 66 64 64 63 63 60 62 62 61 63 62 61 63 63
14 14 10 16 19 19 19 17 19 23 24 27 34 33 34 37 39 40 42 49 56 53 56 60 60 67 69 70 69 68 69 70 68 67 68 68 66 64 66 63 64 61 63 62 62 62 61 61 63
15 11 10 9 8 10 17 17 18 20 21 25 25 28 35 35 37 41 44 46 53 54 56 56 61 70 71 72 71 71 70 69 67 68 68 70 68 67 65 66 64 63 63 63 63 63 62 61 62
11 9 7 6 6 6 5 5 10 18 18 19 26 29 35 36 36 37 43 46 50 53 57 58 59 69 71 72 71 71 70 70 69 68 67 68 70 68 66 65 67 67 64 65 63 62 62 61 62
15 15 15 14 14 13 12 12 13 14 13 17 18 21 24 36 35 36 37 46 50 58 60 60 59 65 63 61 65 65 64 64 65 65 65 67 71 69 68 68 67 66 66 64 64 63 61 62 61
11 13 14 16 16 13 13 12 13 13 15 17 16 21 22 31 40 41 43 42 47 54 56 58 58 60 61 62 61 60 61 61 60 61 65 67 70 70 68 67 67 67 66 65 65 64 62 62 61
9 9 11 13 14 12 14 12 12 13 15 16 19 21 26 24 31 33 35 42 50 54 57 57 58 59 61 61 63 64 63 63 63 65 66 68 69 70 70 68 67 67 66 65 65 64 61 59 60
16 17 16 13 12 11 15 11 12 13 13 16 17 20 26 29 32 30 32 38 53 55 56 57 58 60 61 61 62 62 60 60 61 65 68 69 69 69 69 68 68 68 67 65 65 65 63 63 61
20 22 20 19 18 16 13 13 13 16 14 13 15 16 20 26 30 33 33 39 46 47 54 59 60 60 61 62 62 63 63 62 62 65 67 68 68 69 69 68 68 68 67 67 65 65 64 63 62
25 22 23 23 21 16 15 14 13 14 14 15 15 16 17 21 27 35 33 36 43 44 45 50 58 59 60 61 63 63 63 63 64 66 68 68 68 68 68 68 68 69 68 67 66 66 65 64 63
23 24 21 20 17 16 16 17 17 18 15 17 19 18 17 17 17 27 30 38 40 41 42 46 51 55 60 61 62 63 62 63 63 66 68 68 67 67 67 68 68 69 68 67 67 66 64 63 63
23 25 24 15 11 11 19 18 16 24 22 21 23 24 22 17 18 27 29 30 30 35 43 44 47 55 58 60 63 66 63 67 65 69 68 68 67 67 68 68 69 68 67 66 66 65 64 64 63
18 22 25 24 18 19 18 20 22 21 27 36 37 37 36 31 23 31 36 39 41 43 46 45 43 55 60 63 66 66 65 66 68 69 68 67 67 68 68 68 68 67 66 66 65 64 63 63 62
25 25 22 26 21 18 19 18 21 31 35 36 36 36 39 40 31 33 34 36 41 51 52 56 52 54 62 63 63 67 68 69 70 69 68 67 67 67 67 68 68 67 66 65 64 63 63 63 62
29 27 30 31 29 21 19 20 33 36 37 37 36 36 41 43 34 32 34 46 53 54 57 57 54 55 59 64 67 68 69 70 69 69 68 67 68 67 68 68 66 65 65 65 63 62 62 62 61
26 32 33 29 25 31 30 26 35 35 35 37 37 38 44 45 44 35 31 55 55 56 56 57 55 62 66 67 67 68 69 69 69 68 68 69 68 68 67 65 64 64 64 63 62 62 62 60 60

GFSSGP_sfc_dewp_060.txt.gz
Dewpoint
55 46 41 42 26 24 22 23 23 21 18 16 20 30 34 43 43 41 54 56 61 68 72 73 75 76 77 76 76 76 76 76 76 75 74 73 72 72 70 69 68 66 64 63 63 63 63 62 61
52 46 37 35 22 19 20 24 22 22 22 19 19 30 42 45 46 58 57 58 61 70 72 71 74 75 76 76 76 76 76 76 76 76 74 73 72 71 69 68 67 65 64 63 63 63 63 62 62
51 47 33 32 25 20 20 21 21 21 21 20 24 33 43 46 52 55 60 59 64 69 71 71 74 74 75 76 76 76 76 76 76 75 74 73 72 72 71 69 68 64 64 64 64 63 64 63 64
44 42 39 28 23 22 22 22 21 20 17 16 25 37 46 49 51 56 60 60 63 68 68 72 74 73 75 75 76 75 76 76 76 75 75 74 73 72 71 69 68 66 65 64 64 64 64 65 65
48 40 34 25 23 21 20 19 18 16 16 16 18 37 46 48 59 60 59 59 61 64 66 72 73 73 74 75 75 75 75 75 76 75 75 74 73 72 71 69 68 66 66 66 65 65 67 67 67
43 37 29 27 27 26 24 23 20 18 17 16 16 34 45 55 61 58 57 56 58 63 68 71 73 72 72 73 74 75 75 75 75 75 75 74 73 72 71 70 69 69 69 68 68 68 69 69 69
43 36 29 27 26 28 28 27 25 20 18 16 18 32 45 54 61 60 55 56 57 64 69 70 71 72 72 72 73 73 74 74 74 74 74 74 73 72 71 70 70 70 70 70 69 69 70 70 70
33 41 38 35 32 34 37 34 27 27 24 20 20 40 42 47 56 61 60 58 60 67 67 70 71 71 70 70 72 72 72 72 72 73 73 73 72 72 71 70 70 70 70 70 70 70 70 70 70
35 31 36 39 38 36 37 35 35 32 31 28 21 44 46 48 51 54 58 63 65 66 66 68 70 70 70 70 70 72 72 72 71 71 72 71 69 69 69 70 69 70 70 70 70 70 70 71 70
32 30 30 36 38 36 35 34 34 34 33 33 27 31 45 47 51 51 55 61 63 64 67 66 68 70 69 69 69 70 69 69 69 69 69 68 67 67 68 69 69 70 70 70 70 71 70 69 68
24 27 30 30 31 32 31 31 33 32 32 34 34 27 28 32 45 49 50 59 62 64 66 66 65 67 67 65 69 69 68 68 68 68 67 67 67 66 67 66 67 67 68 66 68 69 69 68 68
17 18 25 29 30 29 27 28 29 30 32 33 35 33 32 36 38 40 45 55 59 63 65 66 65 64 64 63 67 67 67 68 68 67 67 67 66 65 64 65 65 65 64 65 65 67 67 67 68
18 17 18 18 19 26 30 30 29 28 30 31 33 34 36 37 37 45 52 50 50 60 64 66 66 64 61 61 64 66 65 65 65 66 66 66 66 64 64 63 63 64 63 65 65 65 66 67 67
14 16 15 15 17 19 18 22 23 24 27 28 29 32 35 37 37 45 52 56 54 56 65 66 66 64 61 60 63 64 64 64 64 65 65 65 64 64 63 61 61 62 62 64 64 63 64 64 65
18 14 15 15 17 18 20 18 19 21 23 23 25 28 32 37 37 38 46 52 54 57 61 66 65 64 62 60 64 64 65 65 65 64 65 65 64 64 63 62 61 61 62 62 63 62 62 63 64
16 16 12 14 13 16 19 16 19 21 21 21 24 25 26 35 37 38 42 51 55 55 57 61 64 63 64 63 65 65 66 66 66 66 66 66 65 64 64 63 61 62 62 61 62 62 61 61 62
16 12 12 11 11 10 14 11 16 20 20 20 19 24 28 28 36 39 41 47 49 53 55 58 58 60 66 68 66 67 68 68 67 67 67 67 66 65 64 64 63 62 63 62 62 62 61 60 62
15 12 11 12 13 15 12 13 15 16 16 17 18 19 22 25 28 38 40 41 49 52 54 55 57 59 61 64 67 69 69 68 67 67 67 68 68 67 64 65 64 64 61 63 63 62 62 61 61
19 16 14 16 16 16 14 15 15 16 16 15 16 18 20 23 35 38 40 41 43 53 52 54 56 62 66 69 68 67 66 67 68 68 67 67 69 68 66 65 66 64 63 62 63 62 61 61 61
12 11 11 15 15 13 14 13 12 15 16 15 16 18 21 22 24 25 37 40 41 50 55 56 57 64 68 66 66 64 65 65 65 66 66 66 68 69 68 66 66 66 66 64 64 63 61 61 60
15 15 20 19 20 17 13 12 13 14 16 16 17 19 22 24 26 28 27 41 43 47 57 57 57 64 67 66 64 60 61 61 61 62 62 63 67 70 68 68 67 66 66 65 64 63 61 59 60
19 23 23 22 20 15 17 13 15 15 17 17 16 15 17 19 21 23 27 32 37 46 54 56 56 61 63 61 59 58 56 55 58 57 63 64 68 69 69 68 67 67 66 65 64 64 61 61 60
21 26 23 23 21 20 18 15 14 16 15 16 16 16 17 17 17 19 23 27 33 42 53 54 56 56 58 59 57 56 56 57 59 62 64 65 67 69 69 68 67 67 66 65 65 63 63 64 62
25 23 23 24 21 18 15 16 12 14 15 17 19 18 19 26 24 21 21 27 34 45 53 56 57 57 58 58 58 56 56 58 61 62 64 65 66 67 68 68 68 67 66 66 66 64 63 63 62
23 24 18 16 17 16 17 15 14 19 20 21 29 36 37 37 37 37 36 20 21 40 45 54 55 55 56 57 57 59 58 59 61 63 65 66 66 66 67 67 67 67 67 66 65 65 65 63 61
21 22 20 17 14 15 20 17 18 22 25 37 36 36 36 36 38 41 42 39 24 33 42 44 51 53 55 56 56 59 60 60 61 64 67 67 67 67 67 67 67 67 67 66 66 66 64 63 62
20 22 23 23 21 21 19 19 22 33 35 36 35 36 35 35 39 42 43 38 34 26 39 41 44 47 50 55 57 60 62 62 63 66 68 67 67 67 67 67 67 67 66 66 65 65 63 62 61
25 26 22 25 18 17 20 19 19 32 33 35 33 35 34 34 39 43 44 39 38 36 35 42 43 45 51 54 58 61 63 63 66 68 67 67 67 67 66 66 66 66 66 65 64 63 63 62 61
25 25 29 28 27 19 21 22 32 34 35 35 34 35 36 37 42 44 44 39 44 54 55 55 55 50 55 61 63 64 65 66 68 67 67 67 67 67 67 67 66 66 65 64 63 62 62 61 60
25 28 30 24 22 29 27 23 28 33 35 35 35 38 40 43 45 44 43 40 45 54 55 56 55 54 58 62 64 66 67 68 68 67 67 67 66 67 67 67 66 65 65 63 62 61 62 61 60

GFSSGP_sfc_dewp_063.txt.gz
Dewpoint
58 46 41 41 27 25 24 23 24 22 20 18 22 21 27 40 44 40 55 54 64 63 71 74 76 77 76 76 76 75 75 75 75 75 74 73 73 71 70 70 68 66 65 64 63 63 63 62 62
55 45 36 34 23 19 18 23 22 22 23 23 21 20 31 43 47 56 55 60 62 65 70 72 76 76 76 76 75 75 75 75 75 75 74 73 73 71 69 69 67 66 64 64 64 63 62 62 62
57 45 30 31 26 20 16 21 22 21 21 21 18 21 32 45 53 55 55 60 62 66 69 71 75 76 76 76 75 75 75 75 75 75 74 73 72 72 70 69 68 65 64 64 64 64 63 63 63
45 42 38 31 25 25 22 22 20 20 21 18 17 20 44 50 57 57 57 60 62 66 68 72 74 75 76 76 75 75 75 75 75 75 74 73 73 72 71 69 69 67 65 65 64 64 64 64 64
48 40 35 30 26 26 23 22 23 21 20 19 19 19 44 50 59 58 57 60 61 66 66 71 74 75 75 76 75 75 75 75 75 75 74 73 73 72 71 70 68 67 66 65 65 65 66 66 66
44 37 31 30 25 28 27 25 25 20 22 23 17 25 45 59 58 56 57 57 61 64 66 69 73 74 74 75 75 75 75 75 75 75 75 74 74 72 71 70 69 68 69 68 67 68 68 69 69
43 33 31 30 28 28 28 30 32 30 27 25 27 25 40 58 60 56 54 55 60 62 66 68 70 72 74 74 75 75 75 75 75 75 74 74 74 73 72 71 70 69 70 70 70 69 69 69 69
36 41 38 32 28 29 34 37 31 31 33 34 26 32 42 52 60 57 57 57 62 64 66 68 69 70 70 72 74 75 75 75 75 75 74 74 74 73 72 71 70 70 70 70 70 70 70 70 70
34 32 36 36 33 33 36 36 37 36 34 35 33 33 41 58 59 58 59 63 64 64 66 68 69 69 69 68 71 74 74 74 74 74 74 73 71 71 70 70 69 70 70 70 70 70 70 70 70
32 31 31 37 38 37 36 35 34 33 32 33 35 36 35 53 55 57 57 57 60 60 65 68 69 69 68 67 68 69 69 70 71 71 71 70 67 67 68 69 69 69 70 70 70 70 70 68 68
25 28 32 32 32 32 31 31 30 29 28 34 34 35 34 41 46 49 54 58 57 60 62 66 68 68 68 66 68 69 68 67 67 67 67 67 66 66 68 66 67 66 69 67 68 68 68 67 66
16 21 24 27 29 29 28 29 28 28 28 31 34 34 35 32 35 40 43 51 58 58 61 63 65 67 67 65 67 67 66 67 67 66 66 66 65 65 65 65 65 65 65 65 65 66 66 66 66
18 19 18 18 18 21 27 26 25 24 25 28 29 31 34 37 37 39 50 49 55 59 62 63 62 64 64 63 65 66 65 66 66 66 66 65 65 64 64 64 64 64 63 64 64 64 65 65 66
18 18 17 16 15 16 16 17 19 20 23 22 24 27 31 36 37 45 51 51 52 58 64 65 64 61 61 61 62 63 64 64 64 65 65 65 64 63 63 62 63 63 63 63 64 64 64 64 65
20 14 15 14 15 16 19 17 18 20 22 21 21 22 26 32 37 42 43 50 53 54 62 66 66 64 61 59 60 62 62 62 62 62 64 65 64 63 62 62 61 62 62 62 63 62 62 62 63
17 14 10 12 16 13 18 15 20 20 21 23 21 21 22 26 34 37 42 48 52 55 62 65 65 64 62 60 60 62 62 63 62 63 64 64 64 63 62 61 61 61 62 62 62 62 61 61 61
17 11 13 12 13 12 16 12 14 17 16 17 19 20 18 19 26 34 42 44 47 52 56 62 65 64 63 61 61 61 63 64 64 65 65 65 65 64 64 63 62 61 62 61 61 62 61 60 60
15 15 14 14 15 15 14 14 17 17 17 17 18 18 19 20 21 26 35 44 46 50 53 57 63 64 64 63 63 64 66 66 67 66 66 66 66 66 64 64 64 62 62 62 61 61 61 60 60
19 18 15 15 16 16 14 14 15 17 16 16 17 19 20 22 23 26 29 39 45 49 52 54 58 59 62 64 64 64 64 66 67 67 67 67 67 67 65 64 64 63 61 62 62 61 61 61 61
14 12 17 17 21 19 17 16 16 16 16 16 16 18 20 21 22 21 25 29 35 45 50 52 55 56 61 61 63 63 63 63 65 66 67 67 68 68 66 65 65 64 63 62 62 62 60 61 61
19 20 22 22 23 20 18 14 15 19 19 17 19 19 19 20 19 20 20 24 30 37 46 51 52 53 58 63 64 61 62 62 63 63 64 66 67 68 68 66 65 65 64 63 63 62 61 60 61
16 25 23 21 21 17 18 13 15 17 18 19 18 17 19 19 20 21 20 21 23 27 31 48 52 53 55 63 63 62 59 60 60 62 62 62 64 66 68 68 66 66 66 65 64 64 62 62 61
19 25 22 23 20 19 19 17 11 13 13 15 18 19 21 30 37 37 34 28 29 25 29 39 55 57 57 64 63 62 57 58 57 59 60 61 63 67 68 68 67 66 66 65 64 63 62 63 62
25 22 21 23 21 18 18 16 14 13 15 18 21 26 36 37 37 37 38 39 40 39 30 42 52 56 59 62 62 60 59 55 57 59 61 62 64 66 68 67 67 67 66 65 65 64 63 62 61
22 22 16 14 14 16 17 18 16 19 20 23 32 35 35 36 37 37 37 40 42 43 41 38 52 53 55 59 60 58 57 55 55 55 59 62 64 65 66 67 66 67 66 66 65 64 64 63 61
22 20 17 14 15 12 17 17 19 22 32 35 36 36 36 35 34 35 37 41 43 43 38 36 43 54 55 57 58 58 56 54 53 57 62 63 65 66 66 67 67 67 66 66 65 65 64 64 62
21 20 22 20 21 19 19 19 22 22 32 33 34 35 35 35 35 34 38 43 44 44 40 40 37 51 53 55 55 55 56 57 58 61 64 65 65 66 67 67 66 66 66 65 64 64 64 63 61
21 23 22 23 18 17 18 19 19 22 22 30 33 33 32 36 38 39 42 44 44 43 41 46 38 44 52 53 53 55 58 59 60 63 64 66 66 66 66 66 66 66 66 65 65 64 63 62 61
23 23 27 26 23 17 17 21 27 27 30 33 33 34 35 39 40 41 43 44 43 40 47 54 39 41 46 49 54 57 61 61 63 64 66 66 66 66 66 66 66 66 65 65 64 63 62 61 60
25 26 27 23 19 26 28 22 26 26 31 34 34 34 38 41 41 42 43 43 40 44 45 52 56 49 44 48 53 57 61 63 65 65 66 66 66 66 66 66 66 66 65 64 63 63 62 61 59

GFSSGP_sfc_dewp_069.txt.gz
Dewpoint
60 49 41 37 20 23 17 17 23 22 19 21 21 20 19 20 30 31 58 61 56 63 72 74 76 76 76 75 74 74 75 76 76 76 76 76 76 75 75 74 72 70 68 66 64 63 63 62 62
55 44 37 34 17 12 12 21 21 20 21 23 23 22 23 23 24 31 52 59 58 66 73 73 75 76 76 75 74 74 74 74 75 75 75 75 75 74 73 72 70 68 66 65 64 64 64 63 63
51 41 32 28 25 11 11 18 21 22 23 22 23 23 23 32 48 36 57 57 58 66 71 73 76 76 76 75 75 74 74 74 74 74 74 74 74 73 72 71 70 69 66 65 65 65 64 64 64
44 42 36 24 15 25 19 22 24 24 22 24 24 28 27 54 53 58 58 57 58 63 68 74 75 76 76 75 75 75 75 74 74 74 74 74 73 73 72 71 70 69 67 66 66 66 65 65 65
44 41 26 24 18 26 25 25 24 22 24 26 31 32 34 40 58 59 59 55 57 61 66 72 75 76 76 75 75 75 75 74 74 74 74 74 73 72 71 71 71 70 69 68 67 67 68 68 66
42 39 32 26 22 25 27 27 27 26 26 32 33 33 36 45 57 58 57 55 56 63 67 70 75 75 75 75 75 75 74 74 74 74 74 74 73 72 71 71 71 70 70 70 69 69 69 69 68
38 37 27 30 29 29 29 30 31 32 33 33 34 33 36 37 56 58 58 56 58 63 66 70 71 75 75 75 75 75 75 75 74 74 74 74 73 72 71 71 71 71 70 70 70 70 69 70 68
42 36 28 29 27 28 31 36 36 35 33 35 34 34 34 38 57 58 58 58 57 61 62 68 70 70 71 72 75 75 75 75 75 74 74 74 74 73 72 70 70 71 71 70 70 70 70 70 70
39 31 26 27 26 28 35 34 37 36 34 33 34 34 33 36 57 55 56 57 57 58 62 65 67 68 69 69 72 75 75 75 75 75 75 73 70 70 70 69 70 71 71 71 71 71 70 70 69
30 26 25 32 32 29 33 33 34 32 32 31 32 32 32 31 51 52 52 52 55 55 60 63 67 69 69 68 71 71 71 71 72 72 72 71 70 70 68 69 70 71 71 71 71 71 70 68 61
28 23 29 30 33 32 32 31 31 30 29 30 29 29 27 29 35 49 50 52 51 55 58 63 68 69 68 66 68 69 70 70 71 72 73 72 71 70 69 67 67 67 69 63 66 66 64 62 62
21 23 26 26 29 27 28 27 25 26 28 26 25 25 29 28 32 35 42 50 54 55 57 62 66 68 69 66 66 67 68 70 69 70 73 71 70 69 68 66 65 67 63 64 64 62 64 64 64
19 18 18 19 18 18 19 20 21 21 23 22 23 24 25 28 33 37 45 50 53 57 58 61 64 68 68 69 65 66 68 67 67 68 70 69 67 68 67 66 64 63 62 62 62 63 64 64 64
18 18 17 16 16 17 16 17 18 20 21 21 22 24 25 28 28 35 41 51 60 56 59 60 64 68 67 68 68 67 67 66 66 66 68 70 67 67 64 64 63 62 62 61 62 62 62 62 62
20 17 16 15 15 15 16 15 15 22 23 22 22 22 21 23 23 29 35 42 48 56 59 62 65 66 68 67 68 67 66 64 64 64 66 67 67 67 66 62 62 62 63 65 64 64 64 62 62
17 16 9 12 15 14 15 12 18 20 20 20 21 20 21 24 25 30 34 40 46 50 59 60 62 63 67 66 65 64 64 64 63 64 64 66 66 66 66 63 63 62 63 62 61 61 61 61 61
18 10 13 13 19 18 16 14 17 20 21 23 25 22 20 23 27 34 33 35 42 47 54 57 63 67 66 66 65 65 65 64 62 63 63 65 65 65 67 68 65 65 62 62 62 62 63 62 62
12 12 13 13 15 20 15 16 18 19 20 24 23 24 23 24 26 30 33 36 41 45 49 52 60 68 70 67 65 63 62 62 63 63 63 64 64 65 67 65 64 65 63 63 63 65 64 63 63
16 16 15 16 17 20 16 16 16 17 19 20 23 26 27 28 27 30 34 36 40 46 50 51 52 58 67 67 65 63 62 62 61 62 64 64 65 65 66 64 65 65 63 65 66 65 66 64 64
17 16 15 19 21 20 16 16 17 16 19 20 22 25 27 28 30 31 33 37 44 47 50 52 53 54 58 64 67 66 66 64 64 63 66 66 66 68 68 65 64 66 65 67 67 67 64 64 64
16 17 19 19 21 19 18 10 11 15 16 21 22 25 26 26 28 33 36 42 45 46 50 50 52 54 55 59 64 67 67 67 65 65 65 67 67 67 66 65 66 68 67 65 67 67 66 64 64
15 21 22 20 18 12 18 6 12 14 17 19 19 24 24 28 30 37 40 41 42 43 45 48 53 54 53 56 60 68 63 62 63 66 66 67 68 68 67 67 68 69 67 68 67 67 66 66 64
17 24 21 21 18 19 12 13 10 18 14 17 21 24 26 32 37 38 38 40 41 43 44 47 52 54 55 56 58 58 65 63 64 65 70 71 71 69 67 69 70 70 68 70 68 67 67 65 65
24 21 20 22 19 10 12 14 10 12 16 21 21 23 26 34 35 37 38 41 42 43 44 47 51 55 55 54 55 61 64 66 63 66 65 67 68 69 71 70 71 70 70 69 68 68 68 67 67
22 21 14 5 7 2 19 14 13 19 19 20 21 23 28 34 35 36 38 41 44 45 47 48 50 52 53 53 54 57 62 65 67 67 64 66 65 66 70 71 71 69 70 69 69 69 68 68 67
21 19 9 2 2 3 15 10 11 19 21 24 26 32 33 32 35 37 40 43 44 47 48 49 49 50 51 52 54 56 59 60 62 65 63 63 63 65 71 70 70 69 69 69 69 68 68 69 68
21 20 22 18 17 16 10 15 21 20 23 25 27 31 32 35 38 39 42 44 46 48 50 51 50 50 51 52 55 57 58 62 62 66 66 63 65 65 68 69 69 70 70 70 70 68 69 69 68
23 24 22 24 16 13 12 15 13 18 19 25 27 30 34 36 37 40 42 44 46 46 49 51 53 54 56 56 55 57 58 61 64 66 66 65 66 67 67 68 69 70 70 70 71 70 70 69 67
25 22 25 25 26 17 14 12 23 22 24 27 29 31 34 37 38 41 42 43 44 44 46 48 50 52 53 58 61 61 58 59 63 64 65 65 67 67 66 67 68 69 70 71 71 70 69 68 65
24 25 27 27 23 27 24 18 24 26 26 30 30 31 34 38 39 40 40 43 43 44 44 45 48 49 51 53 58 61 59 58 63 64 63 64 66 66 65 66 67 68 69 70 69 68 67 66 64

GFSSGP_sfc_dewp_072.txt.gz
Dewpoint
56 38 38 37 18 15 18 16 18 16 18 20 19 19 17 19 22 28 56 57 53 58 69 73 76 76 76 77 77 77 76 77 77 76 76 76 76 76 76 75 73 72 70 68 66 64 63 61 61
46 37 35 30 22 13 16 16 14 14 18 19 22 22 22 22 26 34 32 58 52 61 69 69 75 75 75 76 76 76 76 77 77 77 76 76 76 76 75 74 72 70 68 66 64 64 63 63 63
47 38 27 25 31 18 12 14 15 17 18 21 25 27 25 34 43 48 55 57 55 63 67 69 75 75 75 75 75 76 76 76 76 76 76 76 75 75 74 73 72 70 67 65 65 65 65 64 64
42 35 27 23 23 26 15 16 19 19 18 21 28 29 32 41 46 54 57 57 54 60 64 73 75 75 76 75 75 75 75 76 76 76 76 75 75 74 73 73 71 70 68 66 66 67 66 65 65
41 34 28 26 23 19 20 17 14 17 17 17 30 31 36 38 48 58 59 57 54 58 61 72 75 75 76 75 75 74 74 75 75 75 75 74 74 73 73 72 71 71 70 69 67 67 68 68 67
34 32 27 26 26 23 22 20 21 21 20 19 30 32 37 37 47 57 57 57 53 56 62 70 75 75 75 75 75 75 74 74 74 74 74 74 73 73 72 71 71 71 70 70 70 69 69 70 69
33 30 28 25 26 28 28 30 27 24 27 23 33 32 37 35 47 56 58 55 52 56 61 68 72 74 75 75 75 75 75 74 74 74 74 74 73 73 72 71 71 71 71 71 70 70 70 70 68
29 30 28 27 25 26 30 30 30 30 28 33 33 32 35 36 45 52 57 53 52 56 58 64 68 69 71 71 75 75 75 75 74 74 74 74 74 73 72 71 71 71 71 71 71 70 70 70 69
31 28 26 25 26 27 28 31 34 33 32 31 32 33 34 33 32 41 53 54 51 53 57 61 62 65 67 66 70 75 75 75 75 74 75 73 65 67 67 67 70 71 71 71 71 71 70 70 68
27 25 23 25 26 26 27 29 30 32 31 30 32 33 32 30 30 34 42 53 51 51 54 57 61 63 64 60 67 70 69 70 69 68 69 68 65 66 63 67 71 71 71 71 71 71 70 68 56
25 24 21 21 25 28 29 28 30 30 30 30 30 30 28 29 31 31 36 45 50 50 53 57 64 66 64 61 62 65 64 66 67 69 70 70 65 66 66 63 66 66 68 61 65 64 63 60 57
19 21 23 21 24 27 27 28 28 31 31 29 29 29 28 28 29 29 34 42 49 52 52 57 63 68 69 63 62 63 62 64 65 67 71 70 68 68 66 61 61 64 60 62 60 58 61 61 61
17 16 17 19 21 22 23 23 25 26 28 25 26 27 26 27 29 31 34 42 51 52 56 56 61 67 69 70 64 64 65 63 65 66 70 69 67 66 65 64 61 60 59 58 59 59 59 61 61
14 13 15 16 16 17 16 16 17 19 22 22 28 24 23 25 26 30 35 43 55 57 53 56 60 67 68 69 70 66 66 64 65 64 65 70 67 67 63 64 62 59 57 56 57 57 59 60 60
17 17 15 15 15 14 14 14 14 17 21 22 34 27 26 26 24 27 33 41 44 51 59 57 61 64 69 67 67 68 63 64 61 62 66 68 70 68 68 62 60 57 60 63 62 62 62 61 60
15 14 9 9 11 12 14 13 16 19 21 22 25 32 33 25 25 27 31 37 43 47 53 58 58 61 68 69 68 64 62 62 61 63 65 69 68 68 68 60 60 59 61 60 60 60 60 61 62
17 7 9 8 16 14 15 11 13 19 21 22 22 25 25 22 26 30 30 34 41 45 49 51 59 62 65 69 67 67 68 63 60 61 64 67 66 66 65 59 61 66 59 61 61 62 63 63 64
10 11 10 11 13 15 14 14 16 18 18 20 21 23 24 23 25 28 32 35 41 52 58 53 52 62 69 67 68 66 63 62 61 58 59 64 64 64 66 61 65 65 63 64 64 68 65 64 64
14 13 13 13 14 17 15 15 16 18 17 18 19 21 25 25 25 29 32 37 39 46 52 59 55 62 65 66 62 65 61 64 62 61 63 64 64 64 68 60 65 67 64 65 68 67 68 65 66
14 14 14 15 15 18 17 16 17 18 18 17 18 21 22 26 28 28 33 38 44 48 50 52 55 58 58 60 69 69 67 63 65 63 66 66 65 66 67 67 66 67 63 68 68 69 65 65 67
15 15 15 15 18 18 16 15 16 13 15 16 20 22 25 27 26 30 36 42 43 45 48 49 53 55 57 59 60 66 66 67 65 67 65 66 65 67 69 68 66 67 68 64 69 69 70 63 66
14 14 16 17 17 12 16 10 14 13 15 17 21 22 23 23 28 34 38 40 43 43 45 49 53 55 54 57 58 64 59 62 62 63 64 66 68 66 66 69 68 69 65 69 68 69 70 69 65
15 18 18 18 18 17 13 10 12 14 16 18 19 19 22 26 35 35 36 40 42 44 46 49 53 55 56 59 60 56 61 54 55 58 69 73 72 69 65 69 70 71 68 70 71 71 71 67 66
20 19 20 20 17 10 9 8 3 9 13 16 19 17 22 30 32 35 36 39 41 43 46 50 53 55 56 57 58 60 60 61 56 57 60 63 67 69 71 68 71 71 71 70 71 72 71 70 69
22 21 16 12 8 8 15 12 11 16 13 14 16 19 27 32 32 33 35 36 42 44 47 50 52 54 55 55 56 57 59 61 62 62 55 62 61 65 72 73 73 70 73 72 72 72 71 70 69
20 21 15 9 4 0 14 10 11 16 16 21 24 28 29 30 31 34 35 39 41 44 47 49 51 53 53 54 56 58 59 55 55 59 57 55 59 62 72 72 73 72 71 72 72 70 69 71 69
19 21 21 18 15 9 9 10 16 21 20 24 25 28 29 32 36 35 36 40 43 45 47 48 50 52 54 56 59 60 60 61 60 63 66 59 66 63 68 70 72 72 71 71 72 68 70 71 71
24 20 19 18 14 8 6 10 11 19 17 21 24 26 30 32 32 34 36 41 43 44 46 47 49 50 52 54 56 57 60 61 62 64 65 66 67 68 67 70 72 71 71 71 72 70 71 71 70
20 19 20 19 20 18 13 10 23 21 23 25 26 28 31 33 33 35 36 39 40 42 42 46 46 46 48 52 55 56 58 60 62 63 63 65 68 67 66 68 69 69 69 70 71 71 70 70 70
24 22 21 30 24 23 23 19 22 25 24 26 28 29 32 35 36 35 36 38 39 42 41 42 45 45 45 48 51 55 57 58 61 64 64 64 65 64 64 65 67 66 66 70 70 70 68 69 69

GFSSGP_sfc_dewp_078.txt.gz
Dewpoint
53 39 37 30 28 26 23 24 22 14 12 13 17 17 18 18 23 41 54 51 64 65 71 73 77 78 78 77 76 76 76 76 76 76 76 76 76 76 76 75 75 73 71 69 67 65 63 62 60
43 42 35 30 27 27 26 24 22 16 17 17 16 16 17 20 38 41 52 55 64 65 72 71 77 77 78 77 77 76 76 76 76 76 76 77 77 76 75 75 74 72 70 68 65 63 62 63 62
44 41 33 28 26 26 26 22 18 17 16 15 15 18 22 34 40 45 53 55 66 66 69 72 76 77 77 77 77 76 76 76 76 76 76 76 76 76 75 74 73 71 68 66 64 64 65 64 63
34 34 34 26 24 26 28 30 24 18 17 16 16 20 27 38 41 47 53 54 56 64 64 74 76 77 77 77 77 77 77 76 76 76 76 77 76 75 75 74 73 71 69 67 66 67 66 64 63
31 33 28 28 26 25 25 27 32 19 17 16 16 19 28 38 39 47 55 55 55 61 63 72 75 76 77 77 77 77 77 77 77 77 77 76 76 75 75 74 73 71 70 69 68 68 67 67 66
29 31 28 24 22 25 27 27 33 28 25 23 17 17 25 37 36 42 55 56 54 59 66 72 75 76 76 76 76 77 76 77 77 77 76 76 75 75 74 73 72 71 70 70 69 69 68 68 68
28 28 26 25 23 22 23 24 24 26 26 29 26 26 30 35 35 38 52 55 57 58 69 72 71 74 76 76 75 76 76 76 76 76 75 75 75 74 73 72 72 72 71 71 71 70 70 69 69
26 27 24 23 24 24 23 26 27 27 28 32 30 28 31 37 35 34 36 53 54 54 68 71 70 69 71 73 75 75 75 75 75 75 75 74 74 73 73 71 71 72 71 71 71 71 70 70 70
23 22 23 22 22 23 24 23 30 30 29 33 34 34 36 35 31 33 34 50 51 53 66 68 65 68 68 68 72 74 75 75 75 74 74 73 70 70 70 69 70 71 71 71 71 71 71 71 70
21 21 20 21 21 21 21 22 23 30 30 31 35 36 36 34 33 33 32 36 52 52 56 65 64 66 67 62 71 71 70 71 71 70 72 70 68 69 64 67 71 71 71 72 72 72 71 70 64
19 20 20 20 21 20 19 19 21 23 29 32 34 37 37 35 39 37 32 35 44 55 55 63 66 69 66 63 70 69 68 69 69 69 71 70 67 68 67 68 66 69 70 65 68 68 67 63 61
14 17 18 20 20 20 20 20 19 19 25 32 34 37 37 38 40 36 34 33 38 52 59 63 66 70 69 64 67 69 66 68 68 68 71 72 69 71 71 68 66 68 68 66 66 64 65 65 65
9 12 14 16 17 17 18 17 19 19 22 26 32 34 36 37 40 46 44 37 41 53 59 60 66 72 73 74 73 70 65 66 67 69 70 69 70 70 71 72 69 68 68 66 66 65 67 67 66
9 8 8 10 11 14 15 15 16 19 22 25 27 33 34 36 36 39 43 50 55 59 62 63 68 72 72 75 76 76 74 67 68 68 69 71 71 73 72 72 72 70 68 67 66 66 67 65 64
14 12 11 11 12 12 12 12 14 17 19 19 22 26 32 32 30 34 43 53 56 56 61 63 65 71 71 72 74 75 74 71 72 70 73 71 73 74 72 71 70 70 69 68 68 68 68 67 67
13 14 12 12 11 11 12 12 13 14 17 18 17 20 23 30 31 40 44 53 55 56 57 61 59 66 72 73 73 73 72 73 72 72 74 73 73 74 75 71 70 69 69 68 66 66 64 65 66
13 9 9 8 10 8 9 10 12 14 17 20 21 21 20 27 35 46 43 51 52 55 56 59 62 64 72 71 72 72 71 71 71 71 70 72 73 71 73 70 70 71 68 66 66 67 67 66 68
9 8 9 11 12 9 8 10 14 15 14 19 21 22 25 27 31 43 42 47 53 56 60 62 63 65 68 71 71 71 70 69 69 68 68 69 70 71 71 71 70 70 66 66 66 67 68 68 68
13 14 14 15 15 12 12 14 14 17 16 17 21 25 28 30 32 35 42 46 51 58 60 60 64 64 66 69 69 69 68 69 68 68 66 69 67 68 70 69 69 68 65 65 68 68 69 67 68
14 14 12 11 10 12 12 12 15 17 19 21 22 25 28 30 31 36 44 45 52 56 59 61 59 64 63 67 69 69 69 70 69 67 67 68 68 68 68 68 66 67 66 68 68 69 66 68 68
13 12 13 12 13 14 15 15 17 18 20 22 22 24 27 29 31 37 41 44 47 55 58 59 61 61 64 63 65 64 64 66 67 70 68 69 68 68 68 68 67 65 69 64 68 68 69 66 67
12 11 12 14 15 12 15 13 19 18 19 19 20 23 24 25 30 36 39 45 47 49 53 57 58 60 60 65 65 66 63 60 58 62 66 69 68 67 67 68 69 68 65 69 66 70 68 69 66
13 14 16 16 16 17 16 14 17 19 18 20 22 23 24 23 31 30 32 41 42 46 51 56 59 61 61 63 63 64 64 62 62 65 67 68 70 68 67 68 68 69 68 66 68 71 70 70 68
15 15 16 17 15 14 15 13 14 16 19 19 18 19 21 23 26 32 35 39 44 44 47 55 59 61 62 61 62 64 64 64 63 62 64 64 66 69 69 67 68 68 67 68 69 68 70 66 64
16 18 15 14 14 14 16 14 24 24 17 17 20 20 22 25 25 34 38 38 42 44 48 52 56 58 61 61 62 61 62 63 65 64 61 62 61 64 70 69 68 68 69 69 70 69 68 67 68
19 20 19 21 20 19 24 20 19 24 20 17 20 23 22 22 25 30 34 39 36 43 49 49 54 57 58 59 61 63 62 61 61 62 61 60 60 61 65 71 67 65 70 68 70 69 70 70 70
22 21 22 22 27 25 21 21 18 21 20 19 18 22 24 27 34 31 32 38 42 44 50 52 54 54 56 57 60 61 62 64 63 65 65 63 64 61 62 65 65 72 71 69 70 69 69 71 72
25 23 23 21 23 21 17 20 19 25 24 22 20 23 27 30 29 30 33 39 41 45 51 53 53 53 54 56 58 57 60 61 63 64 63 65 65 65 64 64 64 67 72 72 72 71 70 70 71
21 27 31 28 22 21 19 18 26 26 31 28 24 24 27 29 28 30 32 36 37 42 39 51 51 51 53 55 56 57 57 59 60 61 62 63 65 65 66 65 65 63 65 72 72 71 71 71 71
21 26 31 31 31 31 26 25 26 31 32 38 36 28 27 28 27 28 30 34 35 39 39 42 50 49 50 51 52 55 57 57 59 59 60 61 62 63 63 64 65 64 62 67 71 71 71 70 71

GFSSGP_sfc_dewp_084.txt.gz
Dewpoint
55 40 41 38 26 29 26 23 25 21 15 17 33 48 48 47 47 46 61 64 71 75 76 77 77 77 76 76 76 75 75 75 75 76 76 76 76 76 75 75 75 73 71 70 67 64 63 62 61
52 41 40 32 26 26 27 28 25 26 18 18 29 37 43 46 50 61 62 67 71 75 76 76 77 76 76 76 75 75 75 75 75 76 76 76 76 75 75 75 73 71 69 67 65 63 63 62 61
31 42 35 29 26 25 27 28 25 27 22 21 22 34 40 46 49 54 63 67 71 74 75 76 77 76 76 76 75 75 75 75 75 76 76 75 75 75 75 74 73 70 68 66 64 64 64 63 62
28 32 35 31 28 28 28 28 26 31 28 27 29 32 41 46 50 56 65 67 70 72 74 77 77 76 76 76 75 75 76 75 75 76 76 75 75 75 74 74 72 71 68 66 66 66 66 64 63
30 31 30 30 30 29 29 28 27 29 33 31 33 35 38 38 53 62 65 65 67 69 73 76 77 77 76 76 76 76 76 75 76 76 76 75 75 75 74 73 72 71 69 67 67 67 68 68 66
30 30 28 28 29 30 30 28 27 28 33 33 33 33 37 39 34 42 65 65 65 68 73 75 77 75 76 76 75 75 75 76 76 76 76 75 75 74 74 73 72 71 70 70 68 69 69 68 67
27 28 26 27 27 28 28 28 26 25 27 30 33 33 35 32 35 37 55 65 64 69 71 74 75 75 75 76 76 75 75 76 76 75 75 75 75 74 73 72 72 71 71 71 71 70 69 69 68
28 29 27 26 26 26 27 25 25 25 30 31 33 33 33 38 35 34 44 64 64 70 70 73 74 74 73 73 76 75 75 75 75 75 75 75 74 73 73 71 71 71 71 71 71 71 70 70 69
26 25 24 25 25 25 26 24 25 26 28 31 32 34 37 36 35 33 39 66 67 69 70 71 73 74 73 73 75 76 76 76 75 75 75 74 71 71 71 70 71 71 71 71 71 71 71 70 70
22 21 22 24 24 23 23 23 23 26 29 30 31 35 37 35 35 34 33 45 67 68 68 70 71 72 73 73 73 74 74 75 74 74 73 71 70 69 69 69 71 71 71 71 71 71 71 70 68
20 19 21 21 22 22 22 21 22 26 28 30 30 31 35 34 35 34 34 32 49 68 68 68 69 70 71 71 73 73 73 73 73 72 71 69 68 68 68 67 67 68 70 68 69 69 69 68 67
11 16 19 19 21 21 20 20 20 22 27 32 33 34 36 34 34 33 34 35 51 64 68 67 67 68 67 71 71 72 72 71 70 71 70 68 66 65 66 65 65 65 66 66 65 65 66 66 66
11 12 14 17 19 19 20 19 19 18 22 26 30 33 35 37 35 34 34 38 57 58 64 64 66 66 67 69 68 69 70 70 69 69 69 68 65 63 65 65 64 65 65 65 64 63 63 63 63
16 16 15 13 11 12 12 13 14 14 21 21 21 26 34 36 38 36 36 36 44 57 59 63 65 66 66 68 68 67 67 67 67 67 68 67 64 64 64 66 64 64 65 64 64 64 62 62 64
17 13 14 14 15 13 15 12 12 15 17 16 18 23 28 37 38 38 37 36 43 50 57 64 67 65 66 67 68 67 66 67 67 66 67 68 66 63 64 66 66 64 66 66 65 64 64 63 64
15 14 12 12 15 14 13 11 14 16 16 17 18 20 31 36 37 38 39 38 44 48 55 59 68 66 66 68 69 68 67 66 66 66 67 67 68 66 64 65 67 66 67 66 65 64 62 61 62
16 12 12 13 14 14 13 11 14 16 16 16 18 19 21 28 34 38 37 41 47 49 51 53 58 62 67 67 69 69 69 69 66 66 67 67 67 68 69 65 66 67 65 65 64 62 61 60 61
12 12 12 13 13 14 13 12 14 17 16 16 17 20 22 25 26 35 45 47 49 48 50 56 58 60 64 68 69 68 68 69 69 68 68 67 68 67 68 70 67 68 66 65 63 62 63 62 63
15 15 14 17 16 14 12 13 14 16 17 16 18 19 23 26 29 43 46 47 51 53 54 57 55 57 59 68 67 66 66 66 68 68 68 68 70 69 68 67 68 67 66 65 63 62 62 63 65
18 15 13 15 15 14 13 13 16 17 17 17 16 19 22 24 26 34 45 48 50 51 51 55 56 57 58 61 64 65 65 66 65 67 68 67 67 70 69 68 68 68 67 65 63 64 63 64 65
16 13 14 14 17 18 17 17 18 20 21 21 21 21 21 23 24 31 44 48 50 52 52 52 54 55 55 57 60 61 61 65 65 65 65 66 67 67 70 69 68 67 67 66 65 64 63 61 65
12 15 15 15 16 13 17 12 16 18 19 21 19 19 21 22 26 33 43 46 50 51 51 53 54 54 54 55 54 56 59 59 62 63 62 60 67 67 67 67 68 67 66 65 63 65 64 64 63
16 18 16 17 17 15 15 13 14 18 17 17 18 19 20 22 22 32 41 45 48 49 48 49 50 52 52 56 57 57 56 59 60 61 61 63 67 68 68 67 67 67 66 65 63 65 66 66 65
18 18 17 17 15 12 14 14 12 15 16 20 25 26 26 27 24 31 40 44 47 46 47 49 50 50 53 54 55 55 55 55 57 58 59 61 63 64 64 66 67 67 66 65 65 66 66 65 66
21 17 16 15 15 14 16 16 15 19 24 27 27 26 27 31 33 38 40 42 42 41 41 48 50 49 51 54 55 56 57 58 58 57 57 57 57 57 62 67 67 67 67 67 66 65 66 66 66
23 21 21 21 19 21 28 25 23 27 28 30 30 29 26 30 34 36 37 37 37 39 41 46 45 46 50 51 51 53 55 56 57 58 58 58 57 57 58 59 65 68 68 67 68 67 66 66 67
21 21 23 24 27 30 30 30 28 27 27 32 32 31 31 28 33 34 35 36 39 40 40 45 45 46 50 51 53 54 55 57 57 57 58 58 60 61 62 61 61 64 67 68 68 68 67 67 67
24 28 23 28 26 25 27 27 25 26 29 31 33 35 36 36 35 35 36 37 38 39 41 44 46 46 48 51 52 52 53 54 53 56 58 60 60 60 61 62 62 63 64 65 66 67 68 68 68
24 26 33 30 30 26 21 25 30 29 31 31 32 35 37 38 37 38 39 39 36 35 38 43 45 48 48 48 48 51 53 54 54 55 55 56 58 59 60 60 60 61 63 64 63 64 67 67 67
28 33 32 26 27 31 30 25 28 27 30 31 32 34 35 37 39 39 40 40 38 37 38 45 44 45 46 47 48 48 48 48 50 51 52 53 54 55 57 59 60 60 60 60 62 63 63 65 67

GFSSGP_sfc_dewp_087.txt.gz
Dewpoint
53 43 41 34 26 29 27 23 24 25 23 21 44 46 48 49 48 44 62 66 72 74 75 76 77 76 76 76 75 75 75 75 75 75 75 75 75 75 75 75 74 73 71 70 68 64 62 62 62
46 38 37 31 26 25 26 28 26 26 26 20 23 37 42 45 53 61 62 69 71 74 75 75 76 76 76 75 75 75 75 75 75 75 75 75 75 75 74 74 73 71 70 68 65 63 62 61 61
28 40 33 29 26 25 26 27 27 27 24 29 28 37 40 46 53 58 64 70 73 74 75 75 76 76 76 75 75 75 75 75 75 75 75 75 75 75 74 74 73 70 68 66 64 64 64 64 62
27 31 34 31 28 27 28 28 28 27 32 33 34 36 41 43 48 58 67 71 72 74 75 76 76 76 76 75 75 75 75 75 75 75 75 75 74 74 74 73 72 71 68 66 65 66 66 65 64
31 31 28 31 30 31 30 29 28 27 29 32 33 34 37 36 56 65 66 69 71 73 74 76 76 76 76 75 75 75 75 75 75 75 74 74 74 74 74 73 72 71 69 67 66 67 68 67 66
30 30 27 28 28 30 30 31 28 27 28 32 32 32 33 37 44 64 65 67 70 72 74 75 76 76 76 75 75 75 75 75 75 75 75 75 74 74 73 73 72 71 70 69 68 68 69 68 67
28 28 26 27 27 27 29 28 26 25 27 26 34 33 34 33 35 59 64 65 67 71 74 74 75 75 76 75 75 75 75 75 75 75 75 75 74 74 73 73 72 71 71 71 70 70 69 68 68
27 29 27 27 26 26 28 26 26 25 24 26 34 33 32 33 39 59 64 64 66 71 73 73 73 74 74 75 75 75 75 75 75 75 75 74 74 73 73 71 71 71 71 71 71 70 69 69 69
27 25 24 26 26 27 27 25 27 27 26 28 31 35 36 35 43 64 64 66 68 69 71 73 72 73 73 73 75 75 75 75 75 75 75 73 72 71 71 70 70 71 71 71 71 71 70 70 69
23 22 22 26 26 25 25 24 23 23 23 24 30 36 36 36 37 60 64 65 67 68 70 72 72 72 72 72 74 74 73 74 74 73 73 72 70 70 69 69 71 71 71 71 71 71 71 70 67
21 21 22 22 24 24 23 22 23 22 21 26 26 32 35 36 34 33 48 65 66 68 68 70 71 71 72 72 73 73 72 72 72 73 73 71 70 69 69 67 68 67 69 67 69 69 69 67 67
13 16 19 20 21 22 22 21 20 21 21 24 29 33 35 34 34 34 34 43 61 67 67 69 70 71 71 72 71 71 71 71 71 71 71 70 68 67 66 65 64 65 65 65 64 66 66 67 66
10 11 12 14 15 19 20 20 20 19 22 24 26 28 31 35 35 35 36 47 58 67 67 68 69 69 69 71 71 71 71 71 71 71 71 69 67 65 65 64 64 64 64 64 64 63 63 64 64
17 16 16 16 14 12 12 12 15 16 21 22 24 23 21 30 36 35 37 54 57 63 67 67 67 68 68 69 69 70 70 71 71 70 70 69 67 64 63 64 64 63 64 63 63 63 62 62 62
18 14 14 14 15 13 14 12 13 16 19 19 20 20 21 24 34 36 37 47 54 59 64 65 67 67 66 67 68 69 68 68 69 69 69 69 66 64 62 62 64 64 64 64 64 64 63 62 63
14 14 12 12 16 13 13 11 14 17 16 17 17 18 21 26 30 39 39 39 47 56 59 64 65 66 66 65 67 66 68 66 66 66 66 67 67 64 63 63 63 65 64 65 65 65 64 63 63
14 10 12 12 15 15 13 12 15 17 17 17 17 17 22 25 29 38 40 40 41 50 57 61 65 65 65 65 66 67 68 67 67 67 66 66 66 66 62 61 64 66 66 66 65 63 62 60 60
11 12 12 13 14 15 12 13 15 16 17 17 18 19 20 23 23 24 36 39 41 46 52 56 60 65 65 67 69 69 69 68 68 68 68 67 67 67 67 65 64 67 66 65 64 62 62 61 61
16 15 15 16 16 16 13 13 14 16 17 16 18 20 21 23 26 30 41 45 47 48 51 55 57 61 66 67 67 66 67 68 68 68 69 69 69 68 68 68 69 67 66 66 64 62 62 62 64
17 16 16 17 17 14 14 14 16 17 17 18 19 19 20 22 23 28 41 47 49 49 52 55 55 57 60 65 66 66 65 66 67 68 68 68 69 70 70 68 68 68 67 66 64 63 63 62 64
18 17 17 16 16 17 16 16 17 19 21 20 21 22 22 22 23 25 30 44 48 50 53 55 55 55 57 60 60 60 61 64 64 65 66 67 68 68 68 69 69 68 68 67 65 63 62 61 64
15 17 15 16 16 12 15 10 14 17 18 20 20 20 21 22 23 25 28 41 47 49 51 53 54 53 54 57 55 55 59 60 61 61 61 63 66 66 66 66 68 69 69 67 66 65 64 63 62
17 19 19 19 17 15 15 14 14 17 15 17 18 20 21 22 23 24 28 34 43 49 50 52 54 52 53 53 52 54 55 57 59 59 60 62 65 67 66 64 63 66 68 67 66 65 65 65 64
19 19 19 18 15 13 14 14 13 14 15 17 20 23 27 28 27 29 27 30 43 50 50 51 51 51 52 54 54 53 53 53 54 55 56 59 62 64 66 67 67 67 67 66 66 65 65 65 65
22 20 18 18 17 17 22 23 16 19 21 22 24 28 28 27 31 35 36 42 48 47 47 48 48 49 51 52 54 54 53 53 53 54 55 55 55 55 58 63 67 66 65 62 59 62 63 65 65
19 20 19 18 20 19 26 25 24 27 29 29 32 33 34 30 35 37 40 43 44 43 45 49 49 50 52 54 54 55 55 55 55 56 56 56 56 56 57 57 59 65 67 66 66 65 65 65 66
22 20 24 22 28 23 26 30 29 29 30 31 31 34 35 35 33 35 37 39 40 41 42 46 46 44 47 49 50 51 53 54 55 56 57 57 57 58 60 61 60 60 62 66 66 66 66 66 65
23 27 23 26 25 23 26 28 26 27 28 29 29 31 33 36 35 37 35 36 38 39 41 43 44 43 45 48 50 50 53 55 56 56 56 57 58 59 59 60 61 61 62 62 64 64 65 66 66
25 29 32 31 31 27 24 23 31 28 25 26 31 34 32 37 35 38 40 39 39 38 39 41 42 45 44 48 50 52 52 53 53 53 55 57 57 58 58 57 58 59 60 61 62 61 62 64 65
27 29 31 25 23 31 28 23 26 25 27 31 30 27 28 30 38 41 37 39 41 38 38 37 42 43 45 45 49 50 51 52 53 53 53 55 56 55 54 55 55 56 57 59 59 60 61 62 62

GFSSGP_sfc_dewp_093.txt.gz
Dewpoint
49 33 40 34 26 29 28 25 26 27 29 30 28 48 48 49 47 45 64 64 66 71 73 74 76 76 76 76 77 76 76 76 76 76 76 76 76 76 76 75 75 74 72 71 69 67 68 69 70
39 37 35 33 25 24 28 28 27 28 28 30 26 42 44 45 53 60 62 66 66 72 73 72 76 76 76 76 76 76 76 76 76 76 76 75 75 75 75 75 74 72 71 69 66 66 66 67 68
30 38 32 31 28 23 27 28 29 29 29 31 34 40 41 43 46 57 64 69 68 72 73 73 76 76 76 76 76 76 76 76 76 76 75 75 75 75 75 74 74 71 70 67 65 65 66 66 66
31 33 34 28 26 27 28 30 30 28 29 32 33 38 43 43 49 61 68 69 69 71 71 75 76 76 75 75 75 75 75 75 75 75 75 75 75 75 75 74 73 72 69 66 66 66 66 66 64
32 32 27 30 28 30 30 31 29 28 28 30 30 31 40 39 64 68 69 69 68 70 71 73 76 75 75 75 75 75 75 75 75 75 75 75 75 74 74 74 73 72 70 69 67 67 68 67 66
31 32 24 22 25 29 30 30 28 26 27 28 27 29 34 37 59 68 69 69 68 70 72 72 75 75 75 75 75 75 75 75 75 75 75 75 74 74 73 73 72 72 71 70 69 69 69 68 67
30 30 22 25 25 26 27 29 26 26 26 26 26 28 35 35 42 67 69 70 69 70 71 72 72 74 75 75 75 75 75 75 75 74 74 74 74 73 73 73 72 72 71 70 70 70 69 68 68
31 30 27 26 23 22 27 27 27 27 25 26 25 26 29 34 47 66 67 69 68 69 70 71 72 70 70 71 75 75 75 75 74 74 74 74 73 73 73 72 72 72 71 71 71 70 69 69 68
29 25 24 24 26 23 28 28 28 27 25 25 24 26 28 38 55 62 65 66 66 67 69 70 70 71 70 69 71 74 74 74 74 74 74 72 66 68 68 68 71 72 71 71 71 70 70 69 68
24 23 22 26 27 26 25 24 23 24 23 23 25 26 28 41 57 58 62 62 64 65 68 69 71 72 71 68 71 71 70 70 70 70 70 68 68 69 66 68 70 71 71 71 71 71 70 68 60
23 19 23 23 25 25 22 22 23 22 23 24 24 23 23 26 41 59 61 61 62 64 67 69 72 73 71 69 70 70 70 70 71 72 72 71 69 68 67 65 65 66 69 62 65 64 62 62 62
19 21 23 21 22 22 19 17 16 21 21 20 20 24 25 26 27 35 59 61 63 64 67 70 72 73 73 70 70 70 69 70 70 71 73 71 70 70 68 65 64 67 63 64 65 61 63 65 65
13 12 14 14 14 15 16 16 16 17 19 20 21 24 25 28 31 39 49 60 63 65 67 69 71 73 73 73 71 71 71 70 70 71 71 71 70 70 68 67 66 64 63 62 63 62 63 65 66
17 14 17 17 17 17 15 15 16 16 20 20 22 22 25 29 32 39 42 45 55 66 68 69 71 72 73 73 73 72 71 71 71 70 71 72 71 71 68 68 66 65 64 62 62 62 64 65 66
17 16 16 16 17 17 17 15 15 17 19 20 22 23 23 25 26 32 39 47 49 59 68 70 71 72 72 73 73 73 71 71 70 71 72 72 72 72 70 68 67 66 66 66 65 66 66 65 65
15 15 13 12 15 15 16 14 16 18 19 19 21 22 23 27 28 30 34 44 52 55 64 70 69 71 72 72 72 71 71 70 70 71 71 71 73 72 71 69 67 66 66 64 64 65 65 65 65
16 5 10 14 16 14 15 14 18 20 22 22 24 23 24 26 31 37 36 39 48 54 61 67 70 69 71 72 70 71 72 71 70 71 71 72 72 72 71 69 68 67 65 64 64 64 66 65 66
11 13 14 16 16 17 17 18 20 22 21 22 23 24 27 28 30 35 37 38 42 50 57 65 69 70 70 69 70 69 70 70 70 70 70 71 71 71 71 69 69 67 66 65 64 66 66 66 66
16 16 16 18 19 18 19 20 21 22 22 20 22 25 29 30 31 34 37 40 46 50 54 60 65 71 70 68 66 67 66 68 68 68 70 70 70 69 70 68 68 67 66 67 68 66 67 66 67
17 17 17 19 20 20 19 19 20 22 21 21 22 24 27 29 31 34 37 40 43 49 54 56 59 66 69 68 69 67 67 67 67 68 69 69 69 69 68 68 68 68 68 68 69 68 67 67 68
18 18 19 18 19 20 19 18 21 21 23 23 25 27 29 30 31 34 36 40 43 45 51 55 57 62 67 70 69 69 70 70 69 68 68 69 69 70 70 69 69 70 71 70 70 69 68 66 68
17 18 18 19 19 16 19 15 21 22 22 23 24 26 26 28 30 36 39 41 43 43 44 52 57 59 61 68 69 70 66 65 66 67 67 68 70 70 70 70 70 71 71 69 68 67 67 66 64
17 19 19 20 19 21 19 17 18 21 21 22 24 25 30 35 36 36 37 40 39 42 42 47 55 59 61 64 69 68 68 66 67 68 70 71 70 70 70 71 71 70 68 68 67 66 63 62 61
18 18 21 22 19 17 19 19 17 19 22 21 24 31 34 33 34 36 37 39 41 43 45 47 51 57 59 62 65 69 69 68 66 67 68 67 68 69 70 70 70 68 66 67 65 66 67 64 64
21 22 16 15 16 16 22 20 21 25 24 24 30 30 30 33 34 35 34 35 40 43 46 49 50 53 56 59 63 66 69 68 68 66 66 64 63 63 67 69 69 67 67 66 66 67 65 64 64
21 22 16 16 15 16 21 19 21 28 30 32 29 29 29 31 32 34 35 38 38 42 46 49 51 53 54 57 60 62 64 65 62 62 59 58 58 60 65 66 67 68 68 68 67 64 63 64 64
23 21 23 22 24 26 22 23 28 30 32 30 26 26 29 34 36 37 38 40 41 44 46 50 52 53 54 55 57 58 58 58 57 59 61 58 60 57 61 61 62 62 66 68 68 64 65 66 66
24 25 23 23 23 22 20 23 22 27 28 27 27 28 30 35 38 39 41 43 43 45 47 48 50 52 54 55 56 56 57 58 58 59 60 60 61 61 61 62 64 64 63 66 69 68 67 67 65
24 24 30 30 30 28 23 21 31 30 29 29 28 30 34 39 39 41 42 42 43 45 46 49 50 50 52 54 56 56 56 56 57 58 60 61 62 62 62 62 63 64 64 65 66 67 66 66 66
28 26 27 32 29 32 31 26 29 32 28 30 30 35 39 39 39 41 43 43 43 43 45 45 47 49 47 52 50 52 53 54 57 59 59 60 60 60 61 61 61 59 60 62 61 60 59 60 61

GFSSGP_sfc_dewp_096.txt.gz
Dewpoint
48 32 34 33 29 32 33 30 27 27 28 33 39 46 45 46 45 47 63 60 60 65 71 72 76 77 77 77 77 77 76 76 76 76 75 76 76 76 76 76 75 74 72 71 69 68 69 70 71
34 32 33 29 29 31 33 29 28 27 30 32 34 42 44 46 51 58 60 61 63 66 72 70 76 77 77 76 77 76 76 76 76 76 76 76 76 76 75 75 74 73 71 70 68 68 69 70 71
31 32 29 28 29 30 32 30 29 28 31 32 33 41 43 45 49 56 62 63 63 67 69 71 76 76 77 77 77 76 76 76 76 76 76 76 76 76 75 75 74 72 70 68 66 67 67 68 69
28 29 28 25 26 28 29 30 29 28 29 30 32 35 43 48 50 60 63 63 64 65 67 74 76 76 76 76 76 76 76 76 76 76 76 76 76 75 75 75 74 73 70 67 66 67 67 66 65
28 26 23 25 25 28 28 30 30 28 29 29 30 31 36 45 62 64 64 64 64 64 65 72 76 76 76 76 76 76 76 76 76 76 76 75 75 75 75 74 73 72 70 68 67 67 68 67 66
23 22 19 19 23 26 28 29 28 27 27 29 28 31 34 38 55 64 65 66 63 64 66 70 75 75 75 75 75 75 75 75 76 75 75 75 75 75 74 74 73 72 71 70 68 68 68 68 68
22 21 11 11 15 23 25 27 25 26 25 28 27 29 35 36 41 62 66 66 64 64 66 70 70 73 75 75 75 75 75 75 75 75 75 75 74 74 74 73 73 72 71 71 70 68 68 68 68
25 23 14 17 16 16 19 24 24 25 24 25 26 31 33 33 40 52 64 65 63 63 63 69 69 67 68 69 75 75 75 75 75 75 75 75 74 73 73 73 73 71 71 70 69 68 68 68 67
26 18 13 14 16 15 23 21 24 25 24 22 24 26 28 30 47 49 59 63 62 61 63 66 66 67 67 66 70 74 74 75 75 74 74 73 67 66 67 67 72 71 70 70 69 69 68 67 67
21 17 13 16 19 17 20 22 19 19 19 19 21 25 26 26 37 48 53 58 62 61 61 64 67 67 66 63 69 69 67 67 67 68 70 69 65 63 61 65 70 70 70 69 69 69 68 67 54
21 17 15 19 20 19 19 17 18 19 19 19 20 23 24 25 30 39 48 51 59 61 62 64 69 70 68 64 66 66 65 65 65 67 69 69 63 64 63 61 63 63 68 60 63 62 60 57 56
16 17 17 17 17 18 19 19 16 16 19 19 19 21 22 25 28 27 35 52 57 61 63 65 68 72 73 66 65 66 64 64 64 66 69 69 66 66 64 59 59 62 59 59 60 56 59 61 63
17 14 14 16 14 13 13 13 13 14 17 16 17 20 21 23 27 30 33 40 54 59 63 66 68 72 73 72 67 68 68 65 66 67 69 68 66 68 65 63 60 60 58 58 59 58 59 61 65
14 13 13 14 14 15 15 13 13 15 17 18 19 19 19 21 25 31 37 42 49 59 63 66 69 72 72 72 72 70 69 68 67 67 68 71 69 70 66 66 63 61 59 57 58 58 59 62 65
16 15 15 16 15 15 17 15 13 16 16 17 17 19 20 21 22 26 31 39 46 45 55 66 70 71 73 73 73 72 69 68 67 68 72 71 72 71 70 66 65 62 63 64 63 62 63 64 64
16 16 10 10 11 11 16 9 14 17 18 18 17 18 20 22 24 28 32 37 42 45 49 60 64 68 73 73 72 71 69 68 67 67 69 72 73 72 72 67 66 66 67 63 61 60 60 61 63
15 4 8 5 12 11 12 8 15 19 21 22 21 21 19 22 27 33 36 37 41 46 52 54 61 66 70 73 72 72 73 70 68 68 68 72 72 71 72 69 66 71 67 64 62 60 61 60 62
7 9 7 11 15 16 15 14 15 17 18 22 22 21 22 23 25 29 35 37 41 44 50 55 58 68 70 71 73 70 69 69 68 68 68 71 71 71 72 70 71 71 67 65 65 66 62 61 59
12 14 14 16 17 19 18 17 18 20 20 20 20 21 23 25 27 29 33 38 42 49 53 56 57 68 69 69 69 69 67 68 68 67 70 70 70 70 73 69 71 70 68 69 70 66 65 60 65
15 15 16 17 18 19 19 18 19 21 21 21 21 22 23 24 26 28 32 39 43 47 51 55 58 62 68 67 69 68 67 66 67 67 70 70 70 71 70 71 70 70 67 69 68 69 62 64 67
16 16 17 17 18 19 20 19 20 19 22 23 23 24 25 26 28 33 35 41 44 46 48 50 56 60 63 69 67 69 68 68 65 66 67 69 70 71 70 70 69 69 68 66 68 70 69 67 67
17 16 17 18 18 15 19 15 21 20 22 23 24 24 25 28 32 36 38 40 43 43 46 49 53 58 59 63 66 71 65 64 63 66 65 68 70 70 69 69 69 71 68 69 70 69 69 70 67
17 16 18 19 20 21 19 18 20 22 22 23 25 26 30 35 34 34 36 39 39 41 43 49 54 56 59 62 64 64 68 62 61 62 69 72 71 70 67 69 69 68 67 69 70 70 69 66 64
19 19 20 21 21 18 19 18 18 20 22 24 24 26 33 31 32 34 36 37 38 39 41 47 52 56 57 59 61 66 68 67 60 62 62 64 66 69 70 69 71 71 74 73 70 69 70 67 62
21 23 19 18 16 17 21 20 22 25 24 26 28 29 30 30 30 33 34 34 39 39 42 44 49 54 57 57 58 61 65 69 70 69 64 66 63 73 73 72 72 70 72 70 68 68 68 67 65
21 24 19 19 17 16 21 21 22 27 27 29 30 29 29 30 31 32 33 36 36 39 42 46 49 53 55 56 57 59 61 60 63 68 64 62 62 66 71 71 70 71 70 69 69 66 66 67 65
23 21 24 23 23 24 21 24 26 27 28 30 30 29 30 32 33 32 33 37 40 42 45 48 50 52 54 57 57 59 59 64 64 67 69 66 68 63 67 69 69 69 69 68 69 66 66 67 67
25 24 25 23 27 25 21 22 23 28 29 30 30 29 30 31 31 32 36 40 43 43 46 48 50 50 52 55 57 56 59 61 63 64 64 62 60 57 59 61 62 63 63 65 68 66 67 68 65
25 24 25 26 26 29 26 24 30 28 29 31 30 30 30 31 32 35 37 40 42 44 44 47 48 47 49 50 55 57 57 57 58 58 57 58 59 58 55 55 56 57 59 61 64 65 64 66 67
27 27 27 32 31 32 34 30 30 31 30 31 30 29 30 33 37 37 37 40 41 42 43 43 47 47 50 49 50 52 55 57 58 57 58 58 59 57 55 55 56 56 56 60 61 60 59 62 63

GFSSGP_sfc_dewp_102.txt.gz
Dewpoint
50 33 31 29 31 32 31 29 25 28 25 29 32 34 38 47 52 54 61 57 65 68 74 75 77 78 77 77 77 76 76 76 76 76 76 76 76 76 76 76 75 74 73 71 70 70 71 71 72
39 32 31 28 30 31 30 32 32 32 29 30 30 33 35 45 54 56 54 59 65 68 73 74 78 78 78 77 77 76 76 76 76 76 76 76 76 76 76 76 75 73 71 70 70 70 71 71 71
38 33 27 26 30 29 32 38 38 30 30 31 30 34 42 47 53 58 57 60 65 67 70 75 78 77 77 77 77 76 76 76 76 76 76 76 76 76 76 75 75 72 70 69 68 70 71 71 71
27 25 25 24 26 30 31 35 39 31 30 30 31 37 45 52 53 59 59 58 63 64 67 76 77 77 77 77 77 76 76 76 76 76 76 76 76 76 76 75 74 73 71 69 69 70 71 71 71
23 22 22 24 25 28 30 34 34 31 31 29 29 33 47 52 56 57 58 59 60 63 71 74 77 77 77 77 77 77 76 76 76 76 76 76 76 75 75 75 74 72 71 69 69 69 69 70 69
18 17 17 19 22 24 27 30 31 31 32 31 30 31 44 52 53 54 56 59 59 64 72 73 76 77 77 77 77 77 76 76 76 76 76 76 76 75 75 74 73 73 71 70 69 68 68 68 68
17 15 13 13 16 20 23 29 29 29 30 31 30 29 39 44 54 56 56 59 60 63 71 72 72 75 77 77 77 76 76 76 76 76 76 76 75 75 74 74 73 72 71 71 70 69 68 67 67
16 16 14 12 11 9 12 23 26 28 28 29 29 29 34 37 40 50 55 56 57 59 68 70 71 71 73 75 76 76 76 76 76 76 76 75 75 74 74 74 73 72 71 70 70 69 69 68 68
17 15 12 10 10 13 12 9 19 25 26 27 27 28 30 31 32 39 48 53 54 57 65 66 65 68 69 69 74 76 76 76 76 76 75 74 71 72 72 71 72 72 71 71 70 70 69 69 69
15 18 14 12 13 10 10 11 12 14 17 25 26 27 26 28 30 33 41 50 53 55 59 65 65 67 66 63 72 73 73 74 74 73 74 72 70 71 67 68 73 72 72 71 71 71 70 69 62
16 16 14 12 9 13 15 14 15 17 18 20 20 19 23 25 32 32 33 42 48 55 56 63 69 70 66 64 71 69 68 70 72 72 73 72 69 70 66 68 67 70 71 67 69 68 66 62 61
12 15 15 13 11 14 15 13 13 17 17 15 17 18 18 22 29 28 31 34 39 52 55 64 69 72 71 67 69 70 66 67 67 68 71 71 70 70 67 67 65 67 66 64 64 62 63 63 63
12 13 14 13 12 12 14 13 12 13 15 16 15 17 19 23 27 31 32 33 44 48 64 68 70 73 72 74 74 70 68 66 66 68 68 69 70 71 69 66 66 66 63 63 63 63 63 65 64
11 11 11 12 11 12 11 11 10 10 12 13 16 19 18 22 24 30 40 45 51 55 66 69 70 70 73 73 76 77 72 69 67 67 67 69 71 70 69 70 67 66 62 63 62 65 66 65 64
9 10 11 12 10 10 10 10 11 13 14 15 17 19 19 24 23 30 39 52 54 53 66 68 70 62 64 74 75 75 75 70 70 67 70 70 70 72 71 68 70 68 69 68 67 67 68 67 66
12 11 10 12 12 11 11 11 11 13 16 15 16 17 19 23 23 31 38 48 61 55 61 67 63 69 73 75 75 74 72 73 70 72 71 71 70 71 73 70 67 68 70 69 67 66 66 64 64
17 12 9 8 7 8 11 11 12 13 17 19 21 21 20 24 32 39 41 47 56 57 61 61 65 63 73 75 74 75 75 73 73 70 71 72 71 70 72 69 68 70 68 68 66 68 65 64 64
9 9 8 8 7 9 8 8 9 11 17 20 23 24 25 26 28 40 41 44 50 53 57 60 61 65 69 71 75 73 73 73 73 72 70 72 72 71 71 70 70 69 67 66 66 65 66 65 65
11 9 9 11 9 9 12 14 13 16 15 17 20 24 29 30 31 36 43 47 50 55 58 62 63 67 67 67 67 71 70 71 71 72 74 71 71 72 72 71 71 73 68 67 67 66 68 67 68
14 13 12 13 13 13 14 15 17 18 20 20 21 26 28 30 31 34 42 50 52 52 57 62 65 67 68 68 68 65 69 69 69 71 72 71 73 73 73 72 71 71 71 70 70 69 66 68 66
16 16 16 14 14 14 16 16 19 19 21 22 23 27 28 30 32 38 42 50 50 54 57 59 64 66 67 68 66 66 70 71 66 69 71 72 71 72 73 73 72 71 70 68 70 70 68 64 67
15 16 16 14 14 11 16 13 21 19 22 24 26 26 26 29 32 37 43 47 50 49 54 57 61 64 61 67 65 67 65 63 66 65 67 69 71 70 72 72 72 71 71 68 69 69 68 66 63
15 13 14 15 16 17 16 15 17 20 19 23 27 28 31 33 37 36 36 42 42 48 52 57 60 63 64 66 68 65 64 61 63 65 65 68 71 71 71 71 71 72 71 71 70 70 69 67 63
15 15 16 18 17 17 17 17 17 19 23 26 27 27 28 33 34 35 36 40 44 44 48 56 59 60 64 63 64 66 66 64 63 63 64 64 65 71 71 70 71 71 72 71 70 70 70 68 65
19 25 19 17 17 17 20 17 23 28 26 26 28 28 31 34 34 34 34 34 44 46 49 51 54 57 60 60 61 63 65 66 65 64 62 63 62 64 68 69 70 71 71 71 70 70 69 69 67
19 21 18 17 19 17 23 23 25 29 29 29 27 30 32 34 33 33 34 39 37 42 50 50 51 54 56 58 59 63 64 60 61 62 62 61 60 60 64 68 69 70 70 70 71 68 70 70 69
24 22 24 25 25 27 25 26 27 29 32 29 28 30 35 34 35 34 34 39 42 44 51 53 53 54 55 57 59 62 61 63 62 64 64 62 64 64 62 65 68 67 61 66 70 69 69 69 69
26 24 23 27 29 25 22 24 26 32 33 34 34 34 35 37 34 34 34 40 42 44 51 53 53 52 52 54 56 56 59 58 61 62 63 64 64 64 66 67 67 67 66 67 70 70 68 67 66
28 26 27 27 29 32 27 25 35 34 34 33 33 33 35 35 33 32 34 35 36 41 38 50 50 50 52 52 55 56 56 57 59 62 61 62 62 64 64 65 67 66 66 66 67 67 65 65 64
32 32 32 35 33 34 35 34 37 38 34 37 34 35 34 35 32 31 30 33 35 38 39 41 50 47 47 49 51 54 55 57 59 59 60 59 58 58 56 57 63 65 65 66 62 63 64 63 62

GFSSGP_sfc_dewp_105.txt.gz
Dewpoint
56 36 34 31 28 32 30 31 33 30 28 30 33 34 52 54 56 55 66 70 72 75 76 76 77 77 77 76 76 76 76 76 76 76 76 76 76 77 76 76 75 75 73 71 70 71 71 72 72
46 37 34 30 26 28 31 33 35 29 30 30 30 35 51 54 56 59 64 70 72 74 75 76 77 76 77 77 76 76 76 76 76 76 76 76 76 76 76 76 75 73 71 70 70 71 71 72 72
42 35 30 26 26 26 29 37 37 36 31 31 31 37 48 54 57 56 65 69 71 72 74 76 77 76 76 77 76 76 76 76 76 76 76 76 76 76 76 75 75 73 70 69 70 71 72 72 72
27 27 26 23 22 24 30 32 38 40 32 30 31 44 51 58 59 60 65 68 69 70 75 77 77 77 76 76 76 76 76 76 76 76 76 76 76 76 75 75 74 73 71 69 70 71 72 73 72
22 23 20 22 23 25 26 28 41 39 32 30 33 49 51 57 59 60 64 65 67 70 75 76 77 77 77 77 76 76 76 76 76 76 76 76 76 75 75 75 74 73 71 70 69 70 70 70 69
19 20 18 18 19 22 24 27 33 32 32 31 31 48 51 56 57 58 60 64 65 73 74 75 77 77 77 77 76 76 76 76 76 76 76 76 75 75 75 75 74 73 71 70 69 69 68 67 67
19 18 15 15 15 16 17 20 31 31 31 29 31 42 43 44 55 57 58 63 71 72 73 74 75 76 77 77 76 76 76 76 75 75 75 75 75 75 75 74 73 73 71 70 69 68 68 66 66
17 17 14 14 13 12 14 13 28 29 30 30 33 34 35 42 42 56 57 68 70 71 71 72 74 75 75 76 77 76 76 76 76 75 75 75 75 75 74 73 73 73 72 71 70 70 68 67 66
15 15 14 13 12 11 11 12 13 28 28 28 30 33 35 34 38 41 53 61 68 70 70 70 71 73 73 74 75 76 76 76 76 75 75 74 73 73 73 73 73 73 72 71 71 70 69 69 68
13 16 15 16 14 11 12 15 15 17 24 26 28 30 32 30 30 30 36 57 59 68 68 68 69 70 69 72 74 74 75 75 75 75 74 73 71 72 71 72 73 73 72 71 71 71 70 70 65
12 12 18 17 16 16 14 15 15 16 19 22 28 29 25 29 30 29 31 37 55 65 66 66 66 68 66 65 73 73 73 74 74 73 73 72 70 71 70 68 70 70 71 69 70 69 68 66 64
10 13 16 16 16 14 15 16 15 15 17 19 21 23 22 22 26 32 31 30 32 44 63 64 65 66 64 65 70 70 70 72 72 72 73 72 70 67 68 67 67 68 68 66 66 66 65 64 61
11 13 14 15 15 13 14 14 14 14 16 18 19 19 20 20 23 24 28 29 32 48 64 66 66 65 64 67 68 67 66 68 68 70 71 71 69 68 67 66 64 66 65 64 62 62 62 61 60
12 12 13 12 13 14 12 13 14 15 16 14 17 18 17 18 23 23 27 31 41 63 65 70 71 71 70 70 70 69 66 66 66 66 67 69 69 67 68 65 64 64 64 63 58 61 61 60 62
12 11 12 12 13 12 13 11 12 15 15 15 16 20 20 20 22 21 25 32 42 53 65 66 67 70 70 68 70 73 71 68 67 65 66 67 68 68 68 66 65 65 63 61 60 59 61 62 61
16 14 7 10 13 14 12 9 15 16 15 16 19 19 22 23 25 25 29 36 40 49 63 67 62 64 62 60 69 72 72 72 69 66 66 67 66 69 68 68 65 66 65 62 61 59 63 62 61
17 14 14 13 13 12 12 10 15 16 16 21 18 19 18 20 24 26 32 43 49 50 51 56 62 59 62 68 71 71 72 71 72 68 69 68 67 67 69 68 67 66 65 66 64 62 61 60 59
14 14 14 13 11 10 9 11 14 12 19 20 22 21 24 24 26 28 31 39 46 48 51 53 56 61 64 69 72 73 72 72 71 71 70 70 68 68 68 68 67 66 65 64 65 63 62 60 59
14 14 12 12 13 14 10 11 13 16 20 20 23 23 25 26 26 32 35 37 48 52 51 50 51 57 61 62 60 70 71 71 71 72 70 70 70 68 68 67 68 68 65 63 64 63 62 62 63
16 14 14 16 17 13 15 15 17 17 18 19 23 25 27 30 30 30 35 44 47 48 52 56 54 54 57 60 63 63 64 69 70 71 71 71 71 71 68 67 69 68 68 65 63 64 62 61 64
17 17 18 18 19 17 16 16 18 22 20 20 22 24 26 28 30 32 43 44 47 48 49 54 53 57 55 59 60 60 62 63 65 68 70 70 71 71 71 70 68 69 68 66 66 64 63 61 64
15 17 15 18 18 15 16 11 17 22 20 21 20 21 26 28 32 41 42 43 41 41 44 54 56 54 56 55 57 57 59 59 60 61 63 67 70 70 70 70 70 70 70 69 69 68 65 62 61
20 21 15 17 17 19 17 16 17 20 20 21 24 21 25 30 37 38 39 40 40 37 45 51 51 50 49 58 59 59 58 59 60 61 61 59 63 67 70 70 70 68 67 68 69 68 68 66 62
22 21 23 22 18 14 16 18 16 18 19 21 26 27 33 35 35 36 38 37 35 40 41 48 47 51 51 51 54 55 57 60 60 59 59 59 59 63 67 61 61 65 63 65 68 69 68 67 64
21 20 18 18 17 17 19 17 17 22 30 30 31 34 34 34 34 33 35 35 37 37 42 42 45 46 49 51 52 54 54 56 60 61 61 58 57 57 59 65 66 66 65 66 67 66 66 68 67
18 20 19 17 18 17 22 23 26 30 32 30 33 35 35 34 33 34 35 34 34 38 42 43 45 45 48 48 50 53 57 58 59 59 59 59 59 60 61 62 66 65 63 62 64 61 60 63 68
26 25 24 26 26 24 25 26 28 34 35 35 35 34 34 32 35 33 32 34 36 37 42 45 43 48 48 50 52 52 54 55 53 57 61 61 61 61 60 61 61 65 66 63 63 61 59 63 64
31 29 25 28 25 23 26 25 28 34 35 35 36 35 34 34 34 32 32 36 35 36 40 43 46 44 46 46 48 52 54 54 55 57 59 59 59 57 56 56 55 61 61 61 62 61 61 59 63
29 28 27 28 35 28 24 26 36 36 36 37 36 36 36 35 34 33 33 32 33 37 37 41 44 45 46 47 47 48 48 49 53 57 57 58 57 57 55 54 54 53 55 59 56 55 56 57 64
30 30 35 36 33 33 30 29 35 37 35 37 37 37 38 38 36 35 32 30 31 36 35 36 44 44 44 45 47 48 48 51 53 53 55 57 56 56 55 54 53 53 54 55 55 58 58 61 60

GFSSGP_sfc_dewp_111.txt.gz
Dewpoint
56 44 36 32 28 30 29 30 33 32 29 42 49 53 53 55 54 50 67 70 73 74 75 74 76 76 76 76 76 75 75 75 75 75 75 76 76 76 76 76 75 74 73 71 70 71 72 72 71
50 37 31 29 26 26 29 31 32 34 33 48 51 53 54 54 64 66 67 72 73 74 75 75 76 76 76 76 75 75 75 75 75 75 75 75 75 75 75 75 75 73 72 70 71 71 72 72 71
30 35 26 26 25 25 27 30 32 27 29 33 47 52 54 59 64 66 70 73 74 74 75 75 76 76 76 76 75 75 75 75 75 76 75 75 75 75 75 75 74 72 71 70 71 72 72 72 72
22 25 25 23 22 24 27 27 26 26 24 39 48 52 57 61 63 68 72 73 74 74 74 76 76 76 76 76 75 75 75 75 75 75 75 75 75 75 75 74 74 72 70 70 71 72 72 72 72
23 23 20 24 22 23 25 25 24 22 29 42 49 54 57 65 69 71 72 72 72 73 74 75 76 76 76 76 75 75 75 75 75 75 75 75 75 75 75 74 73 72 72 70 71 72 73 73 72
17 21 18 18 19 21 20 20 18 19 24 53 54 53 55 67 68 69 70 70 72 73 74 74 76 76 75 75 75 75 75 75 75 75 75 75 75 75 74 74 73 72 72 71 71 72 73 72 71
18 18 16 17 17 16 19 16 12 13 23 32 53 52 55 64 67 68 68 70 72 73 74 74 74 75 76 75 75 75 75 75 75 75 75 74 74 74 74 74 74 73 72 72 71 71 71 70 70
19 18 16 15 15 18 17 13 12 16 17 40 48 44 45 59 66 67 67 69 71 72 72 74 74 75 74 74 75 75 75 75 75 75 75 74 74 74 74 73 73 73 72 71 71 70 70 69 68
18 15 14 13 14 14 14 14 16 17 22 29 34 43 43 56 64 65 68 70 71 71 71 73 74 74 74 74 74 75 75 75 75 75 75 74 73 72 73 73 72 73 72 71 71 70 69 69 68
14 13 13 16 15 15 16 16 16 16 20 24 31 33 34 60 63 65 66 67 69 69 70 72 73 73 73 74 74 74 74 74 74 73 73 72 72 71 72 72 73 73 73 72 71 71 70 69 65
13 12 14 16 18 19 17 17 16 15 18 23 24 25 23 29 51 65 65 67 68 69 69 70 72 72 73 73 74 73 73 73 73 73 73 72 72 71 71 70 71 70 72 70 69 69 68 66 65
11 13 13 14 15 16 15 16 16 17 14 21 20 24 24 21 23 41 60 65 67 69 69 69 71 71 72 72 73 72 72 72 72 73 73 72 71 70 70 70 69 69 69 69 67 67 66 66 65
13 13 12 13 13 14 16 15 15 15 16 17 18 20 20 18 19 22 34 43 62 68 69 68 69 70 71 71 72 72 71 71 71 72 72 72 70 69 70 69 68 67 68 67 66 65 65 64 63
13 12 12 13 12 14 14 14 15 15 18 18 16 15 16 18 18 20 22 28 33 57 68 68 68 69 69 70 71 71 72 72 72 72 72 72 71 70 69 69 68 67 67 66 66 63 63 61 60
15 12 13 13 13 12 15 13 14 16 16 16 16 15 16 18 18 19 18 24 52 54 60 67 67 69 68 69 70 69 70 70 70 71 71 72 71 70 69 68 67 67 66 64 64 63 61 60 59
18 16 13 14 14 13 13 10 15 16 15 16 16 15 17 20 19 19 22 22 48 63 66 66 67 67 67 68 69 70 69 68 68 69 70 70 72 71 69 68 67 66 65 64 63 62 60 60 59
17 14 14 15 15 14 13 11 14 17 15 16 16 17 18 19 23 25 26 29 54 65 66 67 67 68 69 66 66 70 71 70 68 68 67 67 68 70 70 69 68 67 65 64 63 62 61 59 58
16 15 15 16 17 15 14 13 16 16 16 16 16 18 20 22 22 24 31 45 58 65 64 64 66 66 66 64 64 66 69 70 71 70 68 67 67 67 67 68 67 67 65 65 63 62 61 60 58
18 18 16 17 17 17 14 14 15 17 16 14 16 18 21 23 23 25 39 50 56 63 63 62 61 61 62 62 61 62 65 68 69 70 70 70 69 68 67 67 67 67 66 66 65 64 62 61 61
20 18 17 18 18 15 16 16 16 17 15 15 16 20 22 22 23 26 39 46 52 56 56 58 59 60 60 60 60 60 60 62 63 65 65 68 67 68 69 67 67 67 66 66 66 64 63 64 63
21 19 18 17 20 20 17 16 15 17 20 22 20 22 23 23 23 26 37 46 49 52 55 57 57 56 56 57 57 54 54 54 52 56 58 61 62 63 66 67 67 67 67 67 67 66 64 63 64
20 22 21 20 17 13 17 13 16 16 16 19 20 21 22 23 25 31 42 46 49 52 53 53 53 54 55 53 51 50 50 49 53 56 58 58 60 61 63 62 65 67 67 67 67 67 65 65 64
19 23 22 20 17 16 16 13 15 20 18 17 20 22 25 25 25 34 43 44 49 51 51 52 54 53 52 53 53 53 53 54 56 55 55 57 58 60 61 62 63 62 65 67 67 67 65 65 63
24 23 20 21 17 13 14 14 15 16 16 20 24 32 35 34 33 38 43 44 46 52 51 51 48 49 55 53 54 52 49 49 51 53 57 56 58 58 60 61 61 61 60 62 64 63 64 64 63
21 19 16 15 13 14 18 17 18 20 26 30 31 33 34 37 38 38 37 42 47 47 46 46 47 46 47 48 49 48 49 50 52 55 55 55 57 58 57 58 57 58 60 62 60 59 58 60 60
19 18 17 13 15 15 24 20 21 33 37 36 34 33 35 34 34 34 37 41 43 43 43 45 43 43 46 45 45 47 50 53 54 53 54 57 58 58 56 56 55 55 57 58 60 61 61 59 60
26 18 19 23 26 24 24 25 27 36 36 37 35 35 34 34 34 34 36 36 38 42 42 43 42 43 44 44 46 49 50 53 53 52 55 57 58 57 56 55 53 53 53 54 56 59 61 62 63
30 30 26 27 22 21 25 26 24 34 34 35 35 36 36 34 33 33 32 34 37 40 41 42 42 42 44 46 47 47 47 51 51 52 51 56 56 56 55 55 53 53 53 53 53 53 56 58 59
30 28 30 30 29 24 22 25 31 35 36 35 35 36 36 36 35 33 33 34 34 34 37 42 43 42 45 45 46 46 46 50 51 49 49 54 54 55 55 54 53 53 52 52 52 52 53 54 55
31 33 34 31 29 29 26 26 34 35 35 35 35 36 35 37 38 37 36 35 32 32 32 36 38 43 44 45 45 45 45 47 47 47 49 53 53 54 54 54 53 53 53 52 52 52 53 53 53

GFSSGP_sfc_dewp_114.txt.gz
Dewpoint
57 42 35 32 29 30 30 30 32 32 32 47 54 53 51 55 52 48 68 70 73 74 75 74 76 76 76 76 76 75 75 75 76 76 76 76 76 76 76 76 75 74 73 71 71 71 71 72 71
41 34 30 29 28 27 30 31 32 34 31 29 49 53 53 55 64 66 67 72 73 74 75 75 76 76 76 76 75 75 75 75 75 75 75 76 76 75 75 75 75 73 72 70 71 72 72 71 71
26 32 25 26 25 28 31 30 32 28 28 29 46 53 55 58 66 66 69 72 73 74 75 75 76 76 76 75 75 75 75 75 75 75 75 75 75 75 75 75 75 73 71 70 71 72 73 73 72
20 25 25 23 23 25 28 29 26 23 20 34 48 53 58 63 65 67 72 73 73 74 75 76 76 76 76 75 75 75 75 75 75 75 75 75 75 75 75 75 74 73 71 70 71 73 73 73 73
24 23 20 24 21 23 25 25 23 19 19 33 51 53 56 66 70 72 73 72 72 73 74 75 76 76 76 75 75 75 75 75 75 75 75 75 75 75 75 74 73 72 72 71 71 72 73 73 73
17 21 18 19 20 21 22 22 19 16 16 51 55 55 56 68 70 71 72 71 72 73 74 75 75 75 75 75 75 75 74 74 75 75 75 75 75 75 75 74 73 73 72 72 72 73 73 73 72
17 18 16 17 18 19 19 17 12 14 15 32 54 53 57 66 68 71 70 71 72 73 73 73 74 75 75 75 75 75 74 74 74 74 74 75 75 74 74 74 73 73 72 72 72 73 73 72 72
19 18 16 16 15 16 17 16 14 17 18 34 50 49 53 63 68 67 69 71 71 73 73 73 73 74 74 74 75 75 75 75 75 75 74 74 74 74 74 73 73 73 72 72 72 72 71 71 70
19 15 14 14 14 15 16 15 16 18 20 30 34 44 48 66 66 66 69 70 70 71 71 72 73 73 73 73 74 75 75 75 75 75 74 73 73 73 73 73 72 73 73 72 71 71 70 69 69
15 14 13 15 15 15 16 17 16 15 21 24 33 31 63 65 65 65 67 68 69 69 70 72 72 73 72 72 73 73 73 74 74 73 73 73 72 71 72 72 73 72 73 73 72 71 70 69 66
14 12 14 15 17 19 18 16 17 15 16 21 22 22 43 61 64 64 65 66 67 68 69 71 72 73 73 72 73 73 73 73 73 73 73 72 72 72 72 71 71 72 72 71 70 69 69 68 66
11 14 14 13 15 15 15 18 16 15 15 21 20 25 23 46 57 62 64 66 67 68 69 71 71 72 72 73 73 72 71 72 71 72 72 72 71 70 71 71 70 70 70 70 69 67 67 67 66
13 14 13 13 12 13 14 14 15 16 17 18 17 20 20 23 32 42 62 65 67 68 69 69 71 71 72 72 73 72 71 71 71 71 71 72 71 70 70 70 70 69 69 68 68 67 66 66 65
14 14 12 13 12 12 12 12 15 16 19 18 19 17 18 19 20 26 32 41 64 68 69 69 70 71 71 71 72 71 71 71 71 71 71 71 71 70 69 69 69 69 68 68 67 66 65 64 63
15 14 14 13 13 12 14 12 14 16 17 17 17 17 17 18 21 21 25 30 39 57 68 68 69 70 70 70 71 71 71 72 71 71 71 71 71 70 70 69 68 68 68 67 67 66 65 63 62
16 15 14 15 14 14 12 11 16 17 17 17 17 16 18 19 20 21 24 28 35 50 58 67 68 69 69 69 70 70 70 70 70 71 71 72 72 72 70 69 69 69 68 67 66 65 64 63 62
17 15 14 14 15 13 13 12 15 19 16 16 17 17 18 18 22 27 25 27 37 49 64 65 67 68 68 68 68 70 69 69 69 70 69 69 71 72 71 70 70 69 67 66 66 65 64 64 62
17 15 15 14 17 14 15 13 16 18 17 18 19 19 20 21 22 25 29 32 41 60 65 66 66 67 67 66 67 68 70 71 71 69 68 68 68 69 70 70 69 68 67 66 66 65 65 65 64
18 16 17 18 17 16 15 15 16 17 18 16 17 18 19 22 23 29 32 45 56 64 64 65 66 66 65 64 64 64 64 68 69 71 71 71 69 68 68 68 68 68 68 67 66 66 64 64 63
20 19 18 18 19 16 17 16 17 18 18 17 17 18 19 24 25 31 39 50 58 62 64 64 65 65 65 64 61 62 63 64 65 65 66 64 64 66 68 68 67 67 67 67 67 66 65 65 64
21 19 19 17 21 18 17 16 18 18 18 20 22 23 24 24 25 28 35 46 54 59 61 61 62 63 62 60 58 56 56 54 53 57 60 60 62 63 65 64 66 67 67 67 67 67 66 65 64
18 22 22 22 19 16 17 13 16 19 17 19 20 21 22 24 26 28 32 42 50 55 56 58 58 58 58 58 55 53 51 50 53 55 58 59 61 62 62 63 64 64 66 66 67 68 67 66 64
20 23 23 23 19 16 16 13 15 22 20 18 19 23 31 34 33 31 30 37 45 53 55 55 55 55 54 53 52 52 51 52 55 56 56 58 60 61 62 63 63 63 63 64 66 66 67 66 66
22 20 20 20 17 14 15 14 14 16 17 23 28 30 35 35 37 40 38 43 49 52 52 53 54 52 53 54 54 53 54 53 52 54 57 56 59 61 61 61 62 61 61 62 62 64 65 65 65
21 19 16 15 14 14 18 15 16 22 24 30 32 33 34 36 38 39 43 46 50 50 50 50 49 51 54 53 54 53 51 51 51 55 55 55 58 59 59 59 57 57 59 59 62 61 61 61 62
21 20 16 12 14 14 22 19 19 31 37 37 36 36 35 35 35 38 45 48 48 49 48 48 48 49 49 50 50 50 51 51 53 55 54 56 57 58 58 58 57 56 56 56 58 61 61 61 61
23 18 19 20 26 22 21 25 26 36 37 37 36 36 35 34 34 34 36 44 47 47 47 47 46 46 47 48 48 49 50 53 54 55 55 57 58 58 57 57 55 55 55 55 55 57 57 60 61
27 27 25 26 23 21 23 26 23 34 34 35 35 35 35 35 34 33 34 37 39 42 43 45 44 44 46 47 47 47 50 52 53 54 54 56 58 58 57 56 55 55 55 55 55 54 54 56 57
29 28 30 29 26 22 22 24 31 34 34 34 35 36 37 37 37 34 34 35 37 38 39 43 44 44 44 46 48 48 49 49 52 53 53 54 56 57 56 56 55 54 54 54 54 54 53 54 55
33 34 32 29 27 27 26 25 33 35 36 36 34 35 36 35 36 38 38 37 36 35 35 35 40 40 42 45 46 47 48 48 50 51 51 52 53 55 56 55 55 53 53 54 53 52 53 54 53

GFSSGP_sfc_dewp_117.txt.gz
Dewpoint
54 33 35 33 30 33 33 32 33 31 28 42 34 50 48 53 49 48 68 70 70 72 74 73 76 76 76 76 76 76 76 76 76 76 76 76 76 76 76 76 76 75 73 71 71 71 72 72 72
40 32 32 31 31 33 35 33 32 32 27 26 38 54 53 53 62 66 66 71 70 72 73 72 76 76 76 76 75 75 76 76 76 76 76 76 76 76 75 75 75 73 72 71 71 72 72 72 72
24 31 26 26 29 34 35 34 33 27 22 27 35 53 54 54 64 63 66 71 71 72 72 73 76 76 76 75 75 75 75 75 76 76 76 76 76 75 75 75 75 73 71 71 71 72 73 72 71
20 25 27 25 29 29 35 31 29 22 16 29 40 51 57 63 63 65 70 70 70 71 71 75 76 76 76 76 75 75 75 75 75 75 75 75 75 75 75 75 75 73 71 71 72 73 73 73 72
25 25 23 24 25 25 27 26 24 18 16 24 52 52 56 64 68 70 70 70 69 71 71 73 76 76 76 75 75 75 75 75 75 75 75 75 75 75 75 75 74 73 72 72 72 73 74 74 73
18 24 21 21 22 23 24 24 19 15 14 21 49 55 56 67 69 70 70 70 69 71 72 71 75 75 75 75 75 75 74 75 75 75 75 75 75 75 75 74 73 73 72 72 72 73 73 73 73
16 21 17 18 21 21 20 19 14 14 17 25 54 52 56 66 69 70 70 70 70 71 72 71 71 74 75 75 75 74 74 74 75 75 75 75 75 75 75 74 73 72 72 72 72 72 72 72 72
19 21 15 15 15 19 18 18 16 16 18 32 52 51 52 64 70 70 70 69 69 70 70 70 71 69 70 71 75 75 74 74 74 75 75 75 75 74 74 73 73 71 71 71 71 71 71 71 71
19 28 21 12 15 14 16 16 17 18 17 29 37 41 51 67 68 68 68 68 68 69 70 70 68 69 69 69 71 74 74 74 74 74 74 73 68 69 70 71 72 72 72 70 70 70 70 70 69
23 30 30 18 15 14 16 16 17 16 18 31 35 60 64 66 66 64 64 64 66 67 69 70 70 70 69 67 70 71 70 70 70 70 71 69 70 70 68 70 73 72 72 72 71 71 70 68 58
18 23 26 16 16 17 16 14 16 17 18 23 33 57 64 64 64 62 61 61 62 65 68 70 72 72 70 67 69 70 69 70 71 72 73 72 70 70 69 69 68 69 71 67 68 67 64 62 60
13 16 16 14 14 18 15 15 13 15 17 18 20 33 61 63 64 62 62 63 64 65 68 69 71 73 72 69 69 69 69 70 70 71 73 72 71 71 70 69 69 70 68 68 68 64 66 66 65
24 13 14 21 13 12 12 12 12 14 18 18 20 22 35 59 63 64 65 65 65 66 67 69 71 73 73 73 70 71 70 70 71 71 72 72 70 71 70 70 70 70 69 68 68 67 66 65 64
21 24 17 13 13 14 12 12 16 15 19 20 22 21 23 29 44 53 57 66 67 68 67 68 71 73 73 73 73 72 72 71 71 71 71 72 72 72 70 70 70 70 70 69 69 68 68 67 65
16 14 14 13 13 13 15 13 15 17 17 19 22 24 23 25 25 29 36 57 66 68 70 70 70 72 73 73 73 73 72 71 71 71 72 72 72 73 73 71 70 70 71 71 70 70 70 68 67
14 13 12 16 16 15 14 11 15 19 21 20 21 21 23 26 25 29 34 42 48 60 68 71 69 70 72 73 72 72 71 71 71 72 72 72 73 73 73 71 71 71 71 70 69 69 68 67 66
19 10 15 16 16 15 15 12 17 18 21 22 23 23 22 24 30 36 35 37 44 50 58 66 71 70 72 73 72 72 73 72 71 72 72 73 73 73 73 71 71 73 70 70 69 68 68 67 66
17 15 16 14 17 15 14 14 19 21 20 23 25 25 26 26 28 35 38 39 42 47 58 65 67 71 72 71 71 71 71 71 71 70 71 71 71 71 72 71 72 72 71 70 70 70 69 68 66
18 17 16 18 18 17 18 18 19 23 21 22 24 26 28 29 30 33 35 39 43 50 59 64 68 70 70 69 69 70 69 71 71 72 73 72 72 71 71 70 71 71 70 70 71 70 69 67 68
19 19 19 20 20 20 20 20 22 23 23 23 24 26 28 28 29 33 37 48 48 53 62 66 69 70 70 68 69 68 68 69 70 70 68 67 66 68 68 69 68 69 67 70 70 69 68 67 68
21 20 21 18 21 21 21 19 21 21 21 23 25 27 28 28 31 35 35 44 52 57 63 66 69 70 70 69 66 66 66 64 60 63 60 61 63 64 66 65 66 67 67 64 68 68 67 66 67
21 22 21 22 21 14 20 10 21 22 22 24 25 25 31 35 37 39 39 41 48 52 60 66 68 69 68 66 65 66 63 58 55 56 58 60 62 63 64 65 65 66 65 67 66 67 67 68 65
17 23 23 23 23 21 18 15 17 21 20 22 25 30 35 39 40 40 41 42 42 48 57 63 66 66 66 66 65 64 60 55 56 57 61 63 64 64 63 65 65 66 64 66 67 67 67 67 67
24 22 23 22 20 16 19 17 15 18 21 22 28 34 38 38 40 42 44 46 44 47 55 61 63 63 63 62 61 63 62 60 55 57 57 58 60 62 64 63 64 65 63 63 62 65 66 65 65
24 24 17 16 15 12 20 17 17 23 25 32 37 37 38 39 39 41 43 45 50 51 55 59 59 58 59 59 59 60 62 62 61 59 56 58 57 59 62 62 62 59 61 61 61 62 62 63 63
24 23 15 13 14 12 22 17 19 32 37 36 36 37 38 38 39 42 46 50 50 52 56 55 55 56 58 58 58 59 60 53 54 59 54 54 54 57 63 62 61 59 58 58 59 56 57 61 60
23 22 23 22 25 20 18 24 28 36 36 37 37 38 38 39 39 39 46 48 52 53 55 55 54 55 57 56 57 57 57 58 56 60 62 56 61 56 61 61 60 59 58 57 58 53 57 58 59
25 25 23 24 21 18 20 24 19 35 36 37 38 39 40 39 38 39 39 46 48 49 50 51 51 51 52 52 53 52 54 55 57 59 60 60 60 61 59 60 60 59 57 57 58 54 55 56 54
28 26 30 27 28 24 21 21 34 36 36 37 35 35 35 36 36 38 41 40 40 42 43 47 47 47 48 49 50 52 52 53 55 55 56 58 59 60 59 59 59 58 57 57 57 56 53 53 54
34 32 33 33 31 32 32 27 34 37 38 38 36 34 34 37 38 38 39 42 43 43 43 44 46 45 45 46 48 49 50 51 53 53 54 55 56 56 55 56 57 57 56 57 57 54 49 51 51

GFSSGP_sfc_dewp_123.txt.gz
Dewpoint
54 42 34 29 34 34 29 27 31 31 32 34 32 37 44 51 53 58 63 57 60 67 72 73 77 77 77 78 77 77 76 76 76 76 76 76 76 76 76 77 76 74 73 73 72 72 72 71 71
35 30 29 31 31 29 26 28 32 32 31 29 37 43 43 53 57 59 59 58 62 68 71 71 77 77 77 78 77 76 76 76 76 76 76 76 76 76 76 76 75 73 72 71 71 71 72 71 71
36 29 28 31 32 29 26 26 32 32 31 31 37 47 49 55 58 59 60 60 64 67 68 73 77 77 77 77 77 77 77 76 76 76 76 76 76 76 76 75 74 73 71 70 71 71 71 71 71
26 26 27 30 30 32 30 29 31 32 30 32 35 44 55 57 55 58 60 60 63 63 66 75 76 77 77 77 77 77 77 76 76 76 76 76 76 76 76 75 73 72 70 71 71 72 71 71 71
25 26 28 32 31 31 31 34 36 32 30 27 35 43 55 60 60 60 59 59 60 62 67 70 76 76 76 76 76 77 77 76 76 76 76 76 76 75 75 74 73 72 70 71 72 72 71 71 71
23 27 28 28 31 32 33 35 36 32 30 26 36 41 54 61 59 59 58 59 59 62 69 69 75 76 76 76 76 76 76 76 76 76 76 76 75 75 75 74 73 72 71 71 72 72 72 71 71
23 27 28 29 30 32 33 35 34 33 30 26 32 38 57 59 60 60 59 59 61 63 66 68 69 73 75 75 75 75 75 75 75 75 75 75 75 75 74 74 73 72 71 71 72 72 72 72 71
23 25 28 30 30 31 34 34 35 32 30 31 39 39 54 60 61 61 59 58 60 62 64 66 67 66 68 68 75 75 75 75 75 75 75 75 75 74 74 74 73 71 71 71 71 72 72 71 72
25 23 27 28 30 32 35 31 31 27 24 28 32 45 58 63 61 60 59 58 59 59 63 63 63 64 65 65 69 74 74 74 75 74 75 73 65 68 71 70 73 73 71 72 72 72 72 72 71
26 26 29 29 28 27 30 26 30 27 24 28 35 46 60 62 60 58 58 57 58 58 60 61 62 64 64 62 69 67 66 66 66 66 70 65 64 67 64 70 73 73 72 72 72 72 71 69 54
27 29 31 33 32 28 25 24 24 25 28 29 33 41 55 59 59 56 55 56 57 59 59 60 64 68 63 61 67 64 64 64 65 66 70 69 62 63 62 64 66 66 70 64 67 65 62 57 54
30 32 35 34 38 35 30 28 27 25 28 28 30 37 50 56 57 55 54 55 56 58 60 62 64 68 69 62 64 65 64 65 65 66 72 70 66 68 65 60 62 66 63 65 63 60 63 61 60
35 33 32 35 36 34 34 34 27 24 23 23 26 28 46 53 55 55 53 54 56 57 60 62 66 70 72 71 64 65 66 65 66 68 70 70 68 71 68 68 64 64 64 64 65 64 65 64 65
39 36 39 40 33 32 35 39 41 31 30 26 25 26 31 52 54 55 56 56 58 61 62 63 66 73 71 72 74 69 69 67 67 67 68 72 70 73 68 69 68 67 65 64 64 65 66 66 67
39 36 39 39 33 36 40 40 42 38 27 30 27 27 30 34 53 56 58 60 61 62 64 66 68 72 75 74 72 71 68 67 67 67 71 72 73 74 73 68 67 66 68 68 68 68 68 66 66
36 40 36 36 36 42 45 39 40 42 37 34 25 25 29 30 34 46 55 61 63 62 64 67 64 68 74 75 73 70 69 69 68 70 68 71 72 73 73 69 68 69 71 68 68 67 66 65 65
34 41 38 33 41 43 46 42 42 44 43 38 27 25 28 29 31 35 35 41 47 55 59 62 67 64 72 76 73 73 75 71 71 75 73 72 71 71 72 69 70 75 69 67 67 66 68 67 66
35 35 31 29 34 39 42 41 43 41 42 42 35 24 28 30 29 32 33 39 37 45 57 63 65 71 74 72 73 70 70 72 71 75 72 70 70 71 72 70 71 72 70 66 66 71 67 67 65
22 18 24 24 23 29 28 35 35 40 37 37 32 26 27 30 31 30 32 35 37 47 59 64 64 74 70 66 66 67 65 67 68 68 73 70 70 71 74 70 72 72 70 70 70 68 71 65 66
14 11 11 14 14 18 20 22 24 27 31 36 32 27 28 28 30 31 35 35 41 51 59 63 66 70 71 66 69 64 64 63 64 66 72 70 70 73 73 73 70 72 66 70 70 70 65 61 61
12 13 13 14 15 18 19 18 21 20 23 25 25 27 26 26 30 36 32 39 42 48 58 61 67 71 72 72 68 69 68 68 65 70 71 72 72 72 73 71 69 67 66 56 69 66 67 60 60
13 14 14 14 16 15 19 14 22 21 22 24 25 22 24 26 29 30 35 39 43 43 48 55 64 70 71 74 70 74 67 63 62 66 70 72 70 69 67 65 63 67 61 66 62 61 65 64 58
13 16 16 16 17 19 15 12 13 21 20 23 25 25 25 28 33 34 36 39 41 44 46 54 64 69 71 73 74 70 71 62 64 66 73 71 69 64 60 62 64 65 60 65 64 64 67 60 59
17 16 19 20 18 15 16 15 13 15 20 23 26 24 26 32 34 36 41 43 45 46 45 52 61 67 69 70 72 73 73 71 63 66 64 60 59 59 63 59 63 64 63 61 60 64 65 65 63
17 22 18 15 12 12 16 14 16 20 21 21 22 25 33 35 34 37 40 41 47 48 50 52 58 64 67 69 69 70 71 73 70 67 61 60 54 54 66 65 66 61 64 61 63 65 64 62 59
19 21 14 14 13 9 14 14 13 21 25 30 28 33 34 33 37 40 45 46 47 51 52 52 57 62 65 66 67 68 69 66 62 65 57 52 50 54 69 64 63 62 61 62 65 58 57 63 59
19 18 19 18 17 14 14 25 28 26 29 28 32 35 37 39 40 41 47 51 55 56 58 58 59 61 63 64 67 67 66 66 61 64 63 53 61 50 57 61 63 62 62 63 65 57 62 61 62
19 18 18 17 20 15 15 20 19 28 27 28 34 38 38 38 39 41 44 50 52 55 57 57 57 57 57 58 58 58 59 58 59 61 61 61 61 58 57 57 62 62 62 63 65 59 61 62 57
17 18 19 21 19 21 17 15 31 31 31 34 35 37 37 37 37 39 41 43 45 47 49 52 52 52 53 52 54 55 55 54 56 57 57 58 60 60 59 58 57 58 62 64 65 64 62 60 62
20 23 23 22 24 20 22 31 29 34 34 38 36 36 37 38 37 37 40 43 44 44 45 48 49 48 48 49 51 53 53 53 55 56 57 57 58 57 57 56 55 54 55 61 63 61 59 60 59